GFSGBSN_925_thetae_000.txt.gz
Theta_e
309 309 308 308 307 307 307 307 309 312 313 314 314 313 312 311 311 312 312 313 314 315 315 316 315 315 315 322 319 318 318 319 318 318 318 318 319 320 319 319 320 319 319 319 319 319 319
309 309 308 308 307 307 307 307 309 312 314 315 315 315 314 313 313 313 314 315 316 316 314 314 314 314 321 319 318 319 319 320 319 320 319 319 320 320 321 321 321 320 320 320 320 320 319
309 309 308 308 307 307 308 308 309 312 314 315 315 315 315 314 315 316 316 317 318 317 316 316 316 317 322 318 319 320 320 319 319 319 318 318 319 321 322 323 320 320 321 322 321 318 316
309 308 308 308 308 308 308 308 309 312 314 315 315 315 315 315 317 318 319 319 318 317 316 316 317 320 320 318 319 319 320 320 319 319 318 317 319 320 322 320 322 321 321 318 318 318 318
308 308 309 310 310 309 308 309 309 311 313 314 315 315 315 317 317 318 319 318 317 316 316 317 320 324 320 318 319 319 319 320 320 321 320 319 319 320 322 323 322 320 319 319 320 319 317
307 308 311 313 312 310 309 309 310 311 312 314 315 315 316 317 317 316 318 317 316 317 316 317 321 321 319 319 318 319 319 320 320 321 322 321 321 322 320 320 320 320 320 321 321 320 319
307 308 313 315 314 312 310 310 311 312 312 312 315 315 316 318 318 319 318 319 321 323 319 320 319 319 318 318 318 317 316 319 321 321 320 319 323 320 319 319 319 319 320 321 321 320 320
307 308 313 315 315 313 312 311 312 312 313 312 313 315 316 316 317 318 320 325 324 325 319 317 317 317 316 317 319 318 316 320 319 320 318 319 323 319 318 319 319 318 320 321 320 320 321
307 307 313 315 316 314 313 312 312 312 314 313 312 314 315 316 317 324 324 323 324 326 327 317 317 317 317 317 317 317 316 317 318 318 318 318 321 317 318 319 319 318 321 320 320 321 322
307 307 312 314 316 316 314 313 311 313 314 315 313 311 315 315 318 324 324 323 327 327 329 319 319 319 317 317 319 317 315 317 320 318 317 319 318 317 318 319 318 319 320 320 321 323 323
307 306 310 313 316 317 314 313 312 312 314 315 316 312 316 321 325 323 324 322 325 333 341 320 318 317 318 317 317 318 317 318 319 318 318 322 318 316 318 318 318 320 319 321 323 324 323
307 306 309 312 315 317 314 313 312 312 314 314 316 311 317 321 323 322 320 324 331 344 339 321 318 319 319 319 318 318 319 318 317 317 317 316 316 317 317 317 319 320 322 323 325 323 331
307 307 308 310 314 317 314 313 312 311 314 315 316 318 321 324 327 320 321 331 336 339 322 321 321 319 319 319 319 318 319 321 321 324 324 321 319 318 317 320 321 321 323 332 338 340 336
306 307 308 309 313 316 315 314 312 312 314 315 315 324 322 324 324 320 329 332 333 324 323 320 319 318 320 319 320 319 321 322 320 321 323 324 327 319 319 319 320 321 322 332 331 331 328
307 308 308 309 313 316 315 314 313 312 315 315 319 325 322 320 322 325 330 338 329 323 320 320 319 320 322 320 318 320 321 320 319 319 322 325 324 321 319 318 319 321 325 321 324 327 327
307 308 309 312 314 316 315 314 313 312 316 317 326 325 323 318 320 330 340 327 322 318 319 319 321 319 322 321 320 321 321 319 319 319 319 322 324 322 321 321 321 321 321 325 329 332 328
307 307 311 313 315 315 315 314 314 313 315 320 329 329 322 315 322 329 338 323 318 316 318 321 321 320 320 320 321 321 321 319 319 319 319 322 324 324 322 324 323 321 323 325 323 326 329
307 308 311 313 315 316 315 315 314 314 315 322 326 332 323 317 330 328 325 320 312 318 318 320 320 321 322 321 323 322 321 321 318 318 321 322 322 326 324 322 320 319 322 322 328 327 326
310 310 313 314 315 316 316 315 315 315 313 319 325 325 324 324 335 333 320 319 319 319 320 320 321 320 320 322 324 322 321 320 319 318 321 320 325 325 323 323 321 322 321 321 323 323 325
312 313 314 315 316 316 316 316 315 315 314 318 324 331 329 326 324 324 323 322 321 319 319 320 320 320 321 322 322 322 321 321 319 319 316 317 320 324 326 325 322 323 321 321 322 324 324
313 314 315 316 316 316 316 316 315 315 314 320 322 324 322 332 328 324 323 322 323 323 320 319 321 321 321 322 321 320 320 320 321 319 319 320 324 322 321 320 320 320 320 320 321 321 322
314 314 315 315 315 315 315 315 316 315 315 323 327 325 321 320 320 322 318 321 321 321 319 321 320 320 320 321 321 322 321 321 321 320 322 321 322 320 321 320 320 319 319 320 319 318 319
315 315 315 315 315 315 315 315 315 316 319 321 319 317 323 320 322 325 323 320 319 319 320 318 319 321 321 321 321 320 319 319 320 321 322 322 321 318 322 318 318 319 318 319 319 318 319
315 315 316 316 316 316 316 316 315 315 317 323 321 320 319 328 326 322 319 319 319 319 321 320 319 320 320 319 319 319 319 318 318 318 318 320 317 316 320 317 322 318 317 316 318 318 317
316 315 316 316 316 316 316 315 316 315 315 321 320 321 319 315 324 320 320 319 319 319 320 319 318 320 319 320 323 317 321 317 316 317 317 319 318 321 321 322 319 317 317 318 318 317 316
315 316 316 316 316 316 316 315 315 315 315 317 321 320 320 311 322 319 320 319 324 325 325 322 319 318 318 324 319 318 320 319 318 316 317 316 315 325 323 322 321 318 315 316 316 318 318
316 316 316 316 316 317 316 316 315 315 315 316 322 319 321 322 320 319 321 323 320 322 323 321 319 318 317 321 318 317 319 316 318 319 317 321 319 320 320 320 319 316 316 317 320 320 316
314 315 316 316 316 317 317 317 316 316 315 315 320 322 321 320 320 319 319 320 320 320 324 320 320 322 319 318 317 318 318 319 319 316 318 318 319 319 317 320 321 317 318 318 317 317 316
314 314 315 315 316 316 316 317 316 316 315 314 318 319 320 320 320 320 320 319 318 317 320 320 319 319 320 320 317 317 317 316 315 317 313 316 317 319 317 318 316 317 316 316 315 316 315

GFSGBSN_925_thetae_003.txt.gz
Theta_e
310 309 308 308 306 306 307 307 309 312 314 314 314 313 312 311 311 312 312 313 314 315 315 315 314 314 314 322 318 318 319 319 319 319 318 318 318 318 317 318 318 317 317 318 316 316 315
309 309 308 307 306 306 307 307 309 311 313 314 315 314 313 312 313 314 314 315 315 314 314 315 314 314 316 320 318 319 319 319 319 319 318 317 318 318 319 320 319 319 319 319 317 317 317
309 308 307 307 308 308 307 307 309 312 313 314 315 315 314 314 315 316 316 316 316 316 314 314 314 315 323 317 318 319 319 319 319 319 318 318 318 318 319 321 319 319 318 317 318 316 315
308 308 309 310 310 308 307 308 309 312 313 314 314 314 314 315 317 318 318 317 317 316 315 315 315 319 319 318 319 319 319 319 320 320 318 318 318 318 320 319 320 320 318 317 317 316 315
308 309 312 313 310 308 308 310 310 312 313 314 315 315 316 317 317 318 318 317 316 316 316 316 316 322 318 318 319 319 320 319 320 320 320 320 319 318 320 320 319 316 316 318 318 314 316
307 311 314 314 312 310 310 311 311 312 312 314 315 315 316 317 317 317 317 317 316 315 316 315 318 321 318 318 318 318 317 317 319 319 320 320 317 318 314 314 316 317 316 318 318 317 316
307 312 315 315 313 312 311 311 312 312 312 313 315 316 317 317 317 317 317 320 317 319 320 316 315 317 317 317 318 316 316 316 318 319 319 316 317 316 316 317 318 316 315 316 317 317 317
307 312 314 316 315 313 313 311 312 313 313 312 314 315 316 317 317 319 323 325 324 324 320 317 316 316 316 316 317 315 315 316 317 317 317 315 319 317 316 316 317 316 317 318 318 318 318
307 310 314 316 316 313 313 312 312 313 314 314 312 315 316 316 317 324 322 324 324 322 327 317 317 316 316 316 317 315 314 315 318 317 315 315 318 317 317 317 317 316 319 318 319 318 319
307 309 313 315 316 314 313 312 311 313 314 315 311 313 315 316 317 324 324 322 325 327 330 317 319 317 317 316 318 317 316 316 320 318 315 317 318 316 316 318 316 317 318 319 319 320 321
307 307 311 313 316 315 313 312 311 313 314 315 314 315 315 320 325 324 324 320 324 333 328 319 317 316 317 316 316 317 317 317 316 316 316 318 314 314 317 316 316 318 319 319 320 320 321
307 307 308 311 314 316 314 312 311 313 314 316 317 313 317 323 322 322 319 319 329 330 332 319 318 318 319 318 317 317 319 318 317 319 317 315 315 316 315 316 317 318 320 321 323 320 322
306 307 307 309 313 316 314 313 312 313 314 314 320 321 319 323 325 318 319 331 330 326 322 320 320 319 318 318 319 318 320 318 319 321 321 321 317 316 318 318 319 318 320 320 321 321 322
306 307 308 308 312 315 315 314 313 313 314 314 320 325 323 320 320 319 329 326 329 325 322 319 319 318 320 317 319 319 320 319 318 319 320 323 322 319 318 319 319 319 320 319 325 320 320
307 307 308 308 312 315 315 314 313 313 316 315 322 325 323 318 318 324 328 326 322 322 320 320 319 319 321 319 317 320 318 319 318 318 322 323 324 320 318 318 318 320 322 320 319 311 315
307 307 307 310 312 315 315 314 314 313 316 318 324 329 320 320 318 329 325 324 319 318 318 319 322 319 322 320 320 320 320 318 319 318 317 322 324 322 321 320 319 319 319 320 316 323 324
307 306 308 311 313 315 315 315 314 313 316 321 327 326 319 315 322 327 323 318 317 315 318 320 321 322 321 321 321 321 321 319 318 318 318 321 321 320 320 323 322 319 319 320 323 320 327
307 306 309 311 314 315 315 315 314 314 314 322 328 327 318 323 326 324 320 319 313 318 318 319 320 321 321 322 322 322 323 321 318 317 322 319 318 317 321 319 319 318 321 321 323 326 318
309 306 309 312 314 315 315 316 315 314 314 316 325 324 323 323 316 315 319 319 319 320 320 321 321 320 320 322 322 322 321 319 317 319 319 318 315 316 319 319 319 321 320 319 318 314 320
311 308 311 314 315 316 315 315 315 315 315 317 323 314 323 323 323 321 321 321 320 319 319 320 320 319 321 321 321 320 321 320 318 319 317 316 319 317 319 320 320 320 320 318 318 310 318
312 312 313 315 316 316 316 315 315 315 315 321 321 319 319 318 319 320 320 321 322 323 320 319 320 320 320 318 318 319 321 322 320 317 318 318 317 319 319 320 320 320 319 318 319 317 318
313 313 314 315 315 315 315 315 316 316 317 322 320 319 320 318 319 319 317 321 321 319 319 321 319 321 320 320 321 322 320 320 320 319 318 319 315 319 319 319 320 318 316 316 316 316 316
314 314 314 315 315 315 315 315 315 316 321 324 320 319 319 317 318 314 317 320 320 319 319 318 318 319 315 321 319 319 318 317 318 319 316 316 312 313 322 317 315 313 314 315 315 314 315
315 315 315 316 315 315 315 315 315 315 317 322 320 321 308 312 310 318 320 319 319 319 319 319 317 312 319 317 315 312 311 314 315 316 315 310 308 307 318 311 322 315 314 313 314 315 314
315 315 315 316 316 316 316 315 315 315 315 321 321 321 308 308 314 318 319 319 318 318 319 319 319 318 317 314 310 311 308 307 309 315 316 315 308 315 320 317 315 315 315 315 313 313 316
315 316 316 315 316 316 316 316 315 315 315 318 322 320 312 306 311 320 318 319 313 313 313 319 318 316 316 305 311 314 308 311 313 314 315 312 309 311 309 313 318 311 313 314 314 316 315
315 315 316 316 315 316 316 316 316 315 315 316 321 321 321 312 315 318 316 316 318 315 313 314 318 311 313 309 312 315 311 313 312 310 308 308 304 309 302 314 312 311 313 316 315 317 312
315 315 315 315 316 316 316 317 317 316 316 315 319 321 320 311 314 318 319 319 318 314 309 313 312 309 306 310 312 311 313 309 311 313 310 309 308 312 310 318 315 313 313 311 311 311 313
314 314 315 315 315 316 316 317 317 317 316 316 316 319 319 318 316 319 319 320 319 319 316 313 312 315 310 307 306 308 312 311 311 317 312 313 311 309 311 310 311 311 311 311 311 312 312

GFSGBSN_925_thetae_006.txt.gz
Theta_e
309 309 308 307 306 307 307 307 310 312 313 314 314 313 311 311 311 311 312 312 313 314 315 314 313 313 314 317 317 318 319 319 318 318 316 315 316 316 318 317 317 316 315 315 315 315 315
309 308 308 308 308 308 307 308 311 312 314 314 314 313 312 312 312 313 314 314 314 314 315 314 314 314 317 317 318 318 319 318 318 318 317 316 316 316 318 318 318 318 318 317 314 315 315
308 309 310 311 310 308 308 309 310 313 314 314 314 314 314 314 314 315 316 316 316 314 314 314 314 315 323 316 318 318 319 319 318 319 317 317 316 316 317 320 318 318 318 315 316 316 315
308 311 313 311 309 309 309 309 311 312 313 314 314 314 314 316 317 317 317 317 316 315 315 315 315 316 317 318 319 319 319 319 319 319 319 318 318 316 318 318 319 319 315 316 315 315 315
310 314 314 312 311 310 310 310 311 312 313 314 314 315 316 316 317 317 317 316 316 316 315 315 317 320 320 318 318 318 318 318 318 319 319 319 318 317 316 314 312 312 314 315 316 314 314
310 314 315 314 312 312 311 311 312 311 313 314 315 316 316 317 317 317 316 316 316 316 318 317 318 318 318 317 317 318 315 315 315 317 318 319 314 314 311 311 314 315 314 314 317 315 315
311 314 315 315 313 312 311 312 313 312 312 314 315 316 316 316 316 316 317 320 319 315 318 315 314 316 315 316 317 316 314 315 315 317 318 315 314 314 315 314 315 315 315 317 316 316 317
310 314 315 316 313 312 311 311 313 313 313 313 315 316 316 317 317 321 324 322 323 322 319 315 315 315 315 315 316 314 314 315 316 315 313 314 316 316 315 316 315 314 318 317 315 316 318
309 313 315 316 314 313 311 311 313 314 315 313 314 315 316 316 317 323 320 323 324 323 323 315 316 315 315 315 316 315 313 314 316 316 313 315 316 315 315 315 315 314 318 317 317 316 317
307 311 313 315 315 313 312 311 312 314 314 315 311 315 316 316 317 324 323 321 323 328 319 316 317 317 316 315 317 316 315 316 315 316 315 316 314 314 316 316 315 316 315 317 318 318 320
307 308 311 314 316 313 313 312 312 313 314 316 312 314 315 317 324 322 324 319 325 328 321 318 316 316 315 315 315 316 316 316 315 315 314 316 313 314 316 315 315 316 315 318 319 318 319
307 307 308 312 315 315 313 313 313 314 314 318 315 316 317 321 320 322 320 320 327 324 328 318 316 318 317 317 316 316 317 316 317 319 317 315 314 314 315 316 317 316 319 319 319 318 320
307 307 307 309 314 315 314 313 313 314 314 315 320 319 320 323 323 318 319 325 326 320 322 319 318 317 318 317 318 317 317 317 317 317 318 319 316 315 317 317 316 316 318 319 318 318 320
306 307 308 309 313 315 314 314 313 314 314 315 322 323 319 320 321 319 327 321 324 324 320 318 317 317 319 316 317 318 318 317 316 317 319 323 321 319 317 318 318 318 319 317 324 318 319
306 307 308 310 312 314 314 314 313 313 316 317 323 325 319 320 318 324 320 319 316 319 317 318 318 318 319 318 316 318 317 318 317 316 320 320 322 319 318 317 318 320 319 318 317 307 314
307 307 308 310 312 314 314 314 313 313 317 319 324 327 319 319 319 327 316 317 317 316 317 319 320 319 319 319 319 319 318 318 318 317 316 320 323 320 319 318 318 319 317 319 315 316 325
307 306 307 310 312 314 314 314 314 313 319 322 328 318 319 316 326 317 315 314 315 315 317 319 320 321 320 321 321 320 320 318 317 317 317 318 319 319 317 321 321 316 318 319 321 317 322
307 306 307 310 313 314 315 315 314 314 316 322 324 316 320 325 319 316 315 317 314 317 318 319 319 319 320 320 321 321 322 320 317 318 320 318 314 316 319 316 317 318 319 318 315 322 315
308 306 307 310 313 315 315 315 315 314 315 318 318 319 324 324 312 310 317 318 318 319 318 319 319 319 319 321 320 320 320 318 316 318 318 316 313 314 315 314 316 319 318 317 316 310 316
310 307 307 311 314 315 315 315 315 315 315 320 314 314 315 315 316 317 318 319 319 317 318 318 319 319 318 320 318 318 319 319 317 318 315 314 316 315 315 315 317 319 319 317 316 308 318
311 309 310 313 315 315 315 315 315 315 318 322 313 314 316 313 315 316 318 320 320 321 318 317 319 319 319 317 316 321 320 319 318 316 317 315 315 316 316 317 318 319 319 319 319 316 315
312 312 313 314 315 315 315 315 315 315 321 317 316 317 314 316 319 316 313 318 319 318 319 319 319 319 318 320 319 321 319 318 318 317 317 315 314 315 318 317 318 319 318 316 316 316 314
313 313 313 314 315 315 315 315 315 316 322 319 319 318 313 310 312 311 313 318 318 318 318 317 317 316 313 319 317 316 316 316 316 317 313 314 309 308 317 313 314 318 315 314 313 313 312
313 314 314 315 315 315 315 315 314 316 322 321 319 316 307 308 304 312 319 318 318 317 319 317 315 311 316 314 312 310 308 309 312 312 313 307 306 306 311 312 320 315 312 313 313 313 312
314 314 315 315 315 315 315 315 315 314 319 321 320 318 306 307 307 315 318 318 316 315 317 318 318 315 313 308 307 305 305 305 305 314 315 312 309 313 313 316 314 314 314 314 313 313 313
314 315 314 315 315 316 315 315 315 315 315 321 321 320 310 306 309 317 316 317 310 312 310 317 315 314 308 304 302 303 305 308 312 312 313 309 303 305 311 315 316 310 310 313 314 314 313
313 314 315 315 315 316 316 316 316 315 315 319 321 320 317 308 312 316 313 312 313 309 310 307 316 309 308 308 306 309 307 311 311 306 304 304 308 306 299 310 307 308 310 313 309 311 311
314 314 314 315 315 315 315 316 316 316 316 315 319 320 318 309 312 317 317 316 315 310 308 311 311 306 306 309 308 306 311 306 310 310 309 308 306 310 308 311 314 311 312 312 309 308 310
314 315 315 315 315 316 316 316 316 317 316 316 316 319 319 316 312 319 319 319 319 315 312 310 311 310 307 306 306 300 310 309 304 315 311 314 309 308 308 309 308 309 311 308 310 310 309

GFSGBSN_925_thetae_009.txt.gz
Theta_e
309 308 308 309 309 308 307 307 309 311 313 313 313 312 311 310 310 310 311 312 313 314 314 314 313 314 315 315 316 318 318 318 318 318 315 314 314 316 317 317 316 315 314 314 314 314 314
308 309 310 311 309 309 309 308 310 312 313 313 313 312 311 311 311 312 313 314 314 314 314 313 314 315 318 315 317 318 318 319 318 319 317 314 315 315 317 318 316 317 316 315 315 314 314
309 311 312 310 309 309 310 309 311 312 313 314 314 313 313 313 314 314 314 315 315 314 314 314 315 315 320 316 317 318 319 318 318 318 317 316 315 315 316 318 317 317 317 314 315 315 315
310 313 313 311 311 310 310 310 311 313 314 314 314 314 314 315 316 316 316 316 316 315 315 315 315 318 316 317 318 318 317 318 317 318 318 318 318 315 316 316 314 314 311 312 313 314 313
312 314 314 312 312 311 311 311 311 313 314 314 315 315 315 316 316 316 316 316 315 315 315 315 318 319 318 317 317 317 315 315 315 317 317 319 317 314 312 311 311 310 313 313 314 313 315
313 314 314 313 312 311 312 312 312 312 314 315 315 315 316 316 316 316 316 316 316 315 316 317 318 315 315 315 316 316 315 315 314 315 316 315 311 311 309 310 313 314 313 314 316 314 314
313 315 315 313 312 311 312 312 313 312 313 314 315 316 316 316 318 319 320 320 318 313 317 314 314 314 314 315 316 316 314 314 314 313 315 313 313 314 314 313 314 314 315 316 315 314 316
312 314 315 314 313 312 311 312 313 314 312 314 315 316 316 316 321 320 322 321 321 320 316 315 314 313 314 315 314 313 314 314 314 314 312 314 315 314 313 314 314 315 316 315 315 314 316
311 313 315 315 313 312 312 312 313 314 314 312 314 315 316 316 319 321 320 324 324 324 314 314 314 314 314 315 314 314 313 313 315 314 313 314 316 313 315 313 314 314 316 316 316 315 315
309 311 314 315 313 313 313 313 313 313 315 312 313 315 316 316 321 323 321 320 323 326 313 315 315 316 315 314 316 315 314 315 314 314 314 316 312 314 314 315 314 316 314 315 316 318 319
307 309 311 315 315 313 313 313 313 314 316 312 312 315 316 317 323 321 323 319 324 324 315 316 315 315 315 315 314 315 316 315 315 317 313 316 312 313 314 315 315 317 315 316 318 317 317
306 307 308 313 315 314 313 313 313 313 314 316 316 315 316 320 321 321 320 320 326 320 323 317 316 316 317 315 315 316 315 314 315 317 316 316 313 314 315 315 316 315 317 316 316 316 319
306 307 308 311 314 314 314 313 313 314 313 319 319 318 319 321 319 318 320 322 322 317 320 317 317 316 316 315 316 316 316 316 316 314 317 318 318 316 315 317 316 315 316 316 316 316 319
306 307 308 311 313 314 314 313 313 314 314 320 321 318 318 321 320 319 323 317 320 321 318 317 316 316 317 315 316 317 317 317 315 316 317 321 318 319 317 317 318 317 317 315 319 317 318
306 307 308 310 313 314 314 313 313 315 315 320 323 320 318 320 319 325 315 315 314 316 316 317 317 318 318 318 317 317 317 317 316 315 319 319 320 317 318 317 316 319 318 316 314 305 312
308 307 308 310 312 314 314 314 313 316 317 321 325 321 320 318 321 322 313 315 316 315 316 318 318 318 319 319 319 317 318 317 317 316 315 319 322 318 317 317 317 317 316 318 314 314 323
308 307 307 310 312 314 314 314 313 315 321 323 328 312 319 323 325 313 312 311 314 314 316 319 319 320 320 320 319 319 319 317 316 316 315 316 317 316 315 318 319 317 317 317 318 316 323
308 307 307 309 312 314 314 314 314 314 319 325 318 314 323 321 318 311 313 315 314 317 316 318 318 318 320 319 320 320 320 319 316 317 318 316 313 314 317 314 315 317 317 316 319 319 314
308 307 306 309 312 314 314 314 314 314 318 321 317 316 320 319 313 307 315 318 317 317 317 318 318 318 318 319 319 319 319 316 315 317 318 315 312 312 313 312 312 318 317 316 311 308 316
309 308 306 309 312 314 314 314 314 314 319 322 311 312 313 311 311 314 317 318 318 317 317 317 317 317 317 318 316 318 319 318 316 317 314 313 314 313 315 313 314 317 317 316 315 312 315
310 309 307 311 313 314 315 315 314 315 320 321 310 311 315 312 313 316 317 319 319 319 317 315 318 318 318 316 316 320 318 317 316 315 315 313 316 315 314 314 315 317 317 318 318 316 318
311 310 310 313 314 315 315 315 315 316 321 316 315 315 311 314 317 314 311 317 319 318 318 318 318 318 318 319 317 320 319 317 318 316 316 313 311 315 315 315 316 317 316 316 316 316 315
312 312 312 314 314 314 315 315 315 318 322 318 316 315 310 306 308 310 311 317 318 317 316 315 316 314 313 318 317 316 314 314 315 316 312 314 308 308 311 311 310 310 311 314 314 312 312
313 312 313 314 314 314 314 314 315 321 320 318 318 311 307 307 301 310 317 316 317 316 317 316 314 310 313 312 310 308 307 306 308 309 311 306 305 304 305 313 315 312 311 311 311 311 310
312 313 314 314 315 315 315 314 314 318 320 319 319 314 305 305 305 313 317 316 315 314 316 316 317 312 309 306 306 304 304 303 303 313 312 307 307 309 313 313 310 313 311 313 312 311 311
313 313 314 315 315 315 315 315 315 314 320 319 319 317 309 306 309 316 315 315 308 309 308 317 313 310 306 299 302 304 305 306 311 310 309 306 300 304 310 314 316 310 308 310 313 314 311
313 314 314 314 315 315 315 315 315 315 317 320 320 319 315 305 309 314 311 310 310 307 308 305 315 308 306 306 306 302 306 308 310 305 304 303 307 308 307 309 307 306 307 309 313 312 308
312 313 314 315 314 315 315 316 316 316 315 317 319 319 317 306 310 316 316 314 312 309 308 310 310 305 306 308 303 305 298 305 309 308 307 308 307 305 307 310 310 308 311 312 310 307 308
313 313 314 314 315 315 315 315 316 316 316 316 317 318 318 315 312 318 319 318 317 314 310 307 310 308 306 307 305 297 306 305 307 314 308 312 309 308 307 309 307 306 310 307 307 307 307

GFSGBSN_925_thetae_012.txt.gz
Theta_e
309 308 310 310 310 308 309 308 309 310 312 313 313 312 311 310 310 310 310 311 313 313 313 313 314 316 316 313 316 317 318 318 318 318 315 314 314 315 316 315 315 314 313 312 313 310 312
308 310 312 311 309 310 310 309 310 312 312 313 313 312 310 310 310 311 312 313 314 314 313 314 315 317 317 314 316 317 318 318 318 317 316 314 315 314 315 317 315 316 315 314 313 314 313
310 313 312 311 311 311 310 310 311 312 313 313 313 312 312 312 313 313 313 314 314 314 314 315 315 317 315 316 317 317 316 317 316 317 316 316 315 314 315 317 315 315 316 311 312 312 314
312 313 313 312 311 312 310 311 311 312 313 313 313 313 313 314 315 315 315 315 315 315 315 314 318 320 315 317 317 316 315 315 315 317 317 317 317 313 314 314 311 311 309 312 313 313 311
313 314 313 312 311 312 311 311 311 312 313 314 314 315 315 316 316 316 315 315 315 315 316 315 318 318 316 317 316 315 315 314 315 317 317 317 315 311 310 309 310 309 312 313 312 312 314
313 315 314 312 312 311 312 312 312 312 314 314 315 315 316 316 316 316 316 316 316 316 316 315 316 313 313 314 315 315 315 315 314 314 314 312 309 309 308 310 312 314 312 314 314 313 313
313 315 314 313 312 312 312 312 313 312 313 315 316 316 316 318 321 320 320 320 313 312 315 313 313 313 313 314 315 315 313 314 312 310 312 312 311 312 313 312 313 313 313 315 313 313 315
312 314 315 313 313 312 312 313 313 313 313 314 315 315 316 321 319 321 321 319 319 319 313 313 312 312 314 314 313 312 314 313 313 312 311 312 313 313 311 312 313 314 315 313 313 313 315
311 313 315 314 313 313 313 313 313 314 313 313 314 315 315 319 321 320 322 324 324 323 310 313 313 314 314 314 313 312 312 313 313 312 312 314 314 312 313 312 315 314 314 314 315 313 314
309 311 313 315 313 313 313 313 313 314 314 312 314 315 315 317 320 320 319 321 323 323 312 314 314 315 314 313 314 313 314 314 313 313 313 314 311 313 314 315 314 317 313 314 315 317 318
307 308 311 314 314 313 313 313 313 315 314 312 313 315 316 319 321 321 320 319 324 320 311 314 314 315 313 313 313 315 314 313 316 316 313 314 313 314 316 315 314 316 315 316 317 317 316
306 307 308 313 314 314 313 313 313 313 316 315 314 315 317 321 321 320 319 321 323 315 317 316 315 315 315 313 314 314 314 312 314 315 315 316 312 313 315 314 315 314 316 313 314 314 318
307 307 308 311 314 314 314 313 314 313 316 319 318 316 317 320 317 318 321 319 318 316 318 316 316 315 314 314 316 315 315 314 316 313 317 317 317 315 314 316 315 315 313 313 315 315 318
306 307 308 311 313 314 314 313 314 314 317 320 317 319 320 321 319 320 321 316 317 318 317 316 315 315 315 314 316 315 316 316 314 315 316 320 315 317 316 316 317 317 315 314 317 315 316
307 307 308 310 313 314 314 313 315 315 317 321 319 317 318 319 320 325 314 313 314 315 315 316 316 317 317 318 316 315 316 316 316 315 318 318 319 316 317 316 316 318 317 314 313 303 311
308 307 307 309 312 314 314 314 314 317 319 323 323 316 319 320 323 318 312 314 315 314 316 317 318 317 318 319 318 316 317 316 316 316 314 318 321 316 316 316 315 316 314 316 313 315 319
308 307 307 308 311 313 314 314 314 318 321 324 326 310 319 323 321 310 311 310 313 315 316 318 319 319 319 320 318 318 318 317 316 316 314 315 315 313 314 316 318 316 315 315 316 314 315
309 308 306 308 311 313 314 314 314 316 320 325 313 312 321 320 315 308 312 314 314 316 315 317 316 317 319 318 319 319 320 318 314 316 317 314 311 313 315 313 314 315 316 314 311 314 312
309 308 306 307 310 313 314 314 314 315 320 321 315 314 317 315 312 306 314 317 316 317 316 317 317 317 316 317 318 318 318 316 314 316 317 314 311 310 309 310 311 316 316 313 309 309 317
310 309 307 306 311 313 314 314 314 315 320 318 310 314 312 311 309 313 316 316 318 316 315 315 317 316 316 316 315 318 319 317 315 316 313 312 312 311 312 311 310 315 316 314 314 316 316
310 310 308 307 312 313 314 314 314 315 319 318 308 312 313 311 312 315 315 316 318 317 315 315 317 317 316 315 316 319 318 316 315 314 314 312 316 313 312 313 313 315 315 315 315 314 318
310 310 309 309 313 314 314 314 315 316 321 316 314 314 310 312 314 313 310 316 319 317 317 317 317 317 317 317 316 319 318 316 316 315 315 311 311 314 313 311 312 313 313 314 314 314 314
311 311 310 311 313 314 314 314 315 319 321 316 314 313 311 305 306 309 310 316 316 315 315 314 315 313 313 316 315 315 313 313 313 315 312 312 306 308 309 309 309 307 309 312 313 312 312
311 312 311 312 314 314 314 314 316 320 318 318 316 310 306 307 301 310 315 315 315 316 315 314 312 309 312 310 309 306 304 303 308 310 310 306 304 304 306 311 311 311 309 310 311 309 309
312 312 312 313 314 314 314 314 314 320 318 319 317 312 304 305 304 311 315 314 314 312 315 315 316 310 307 306 306 305 304 302 303 309 309 306 306 310 315 314 309 312 309 312 312 309 309
311 312 313 313 314 315 315 314 314 318 319 319 317 314 307 305 308 313 314 313 307 308 307 315 311 309 304 298 302 303 305 306 310 309 306 304 299 303 309 313 314 309 307 307 311 312 310
311 312 313 314 315 315 315 315 315 315 319 319 319 318 313 304 308 312 309 310 308 306 307 304 313 306 305 303 302 301 306 306 309 304 301 303 306 307 309 312 310 306 306 308 312 312 308
311 313 313 314 314 315 315 315 316 316 316 319 318 318 315 304 309 313 313 312 310 307 307 308 309 303 306 308 304 305 296 304 307 307 306 307 304 302 305 310 310 306 308 311 310 307 307
311 312 313 314 314 314 315 315 316 316 316 316 318 318 317 313 310 316 318 317 314 312 309 304 309 306 304 305 303 297 301 302 305 310 307 309 308 310 310 308 306 306 309 307 306 306 306

GFSGBSN_925_thetae_015.txt.gz
Theta_e
309 309 311 311 311 310 311 310 309 309 311 312 312 312 311 310 310 310 310 311 312 312 313 313 314 317 315 315 315 317 317 317 317 318 315 315 317 316 317 316 315 315 313 312 312 310 312
309 311 312 311 311 311 311 309 309 311 312 312 312 311 310 310 310 310 311 312 313 313 313 314 315 317 315 316 316 315 317 316 316 318 315 315 315 315 317 316 318 316 315 314 314 314 313
309 312 313 312 311 312 310 310 310 312 313 313 312 311 310 310 311 312 313 313 313 313 314 315 316 317 314 316 316 315 314 315 316 317 316 315 314 316 316 318 315 313 315 313 313 313 314
311 313 313 312 312 312 310 311 311 312 313 313 313 312 312 312 313 314 314 314 314 314 314 316 318 317 316 316 316 316 314 314 316 317 317 316 315 314 315 314 313 313 313 317 314 315 313
312 314 313 312 312 312 311 311 311 313 313 314 314 314 314 315 315 315 315 314 314 315 317 316 317 315 316 316 315 315 314 314 315 316 316 316 313 312 313 313 314 314 315 315 316 313 316
312 314 313 312 312 312 312 312 312 313 314 314 314 315 315 315 315 315 315 315 315 315 316 314 314 314 314 314 314 314 313 315 313 313 316 315 312 314 314 316 315 316 315 315 316 315 317
312 314 314 313 312 313 312 312 312 312 313 315 315 315 315 317 317 316 317 319 312 314 314 312 312 312 312 314 314 313 312 314 312 313 316 314 316 315 314 313 313 314 314 316 315 314 317
311 314 315 313 313 313 313 312 313 312 313 314 315 315 319 320 322 321 320 319 315 316 313 311 312 312 313 313 314 314 314 315 314 314 313 316 315 313 312 313 313 314 315 315 315 314 317
310 313 314 314 313 313 313 312 313 313 313 314 315 315 317 320 319 321 320 322 323 321 313 313 312 313 313 314 313 314 312 313 312 314 313 316 313 312 313 315 317 316 316 315 316 315 315
308 310 313 314 313 313 313 313 313 314 313 313 314 314 315 320 319 317 319 321 323 318 314 314 314 314 313 312 314 314 313 313 315 313 314 313 312 314 316 316 315 318 314 316 317 319 321
307 308 311 314 313 313 313 313 313 314 313 313 314 315 317 317 319 319 318 319 325 315 315 314 315 314 312 314 313 316 313 315 316 315 315 313 314 316 318 315 314 319 315 317 317 319 319
306 307 309 312 314 314 313 313 313 313 314 313 314 316 321 320 320 319 318 322 320 318 316 315 314 315 315 314 315 314 314 313 313 316 317 316 313 314 315 314 315 315 317 315 315 318 323
306 307 308 311 313 314 314 314 314 313 317 317 315 316 317 319 317 318 320 317 320 318 317 316 315 314 314 315 316 315 315 317 318 315 320 317 317 316 314 318 317 318 316 321 325 326 326
307 307 308 310 312 314 314 314 315 314 319 318 318 318 319 319 318 320 319 318 319 318 317 314 314 315 316 315 316 316 316 318 316 316 319 321 319 318 317 317 317 318 318 323 321 324 323
307 307 307 309 312 313 314 314 315 314 319 319 317 317 318 319 321 321 317 318 316 315 315 316 316 317 317 318 316 316 317 317 316 316 320 321 319 316 317 316 316 319 322 315 317 308 322
307 307 307 308 311 313 314 314 315 317 320 321 316 317 319 321 324 316 315 315 314 314 315 316 318 316 318 319 318 317 317 316 316 315 314 318 321 316 316 315 316 318 315 321 321 324 323
308 307 306 307 310 312 314 314 314 318 320 323 319 315 319 323 317 312 315 311 313 315 315 317 318 319 318 319 318 318 317 316 315 316 315 314 316 315 314 318 319 319 319 317 318 320 324
309 308 307 306 309 312 313 314 314 316 321 324 310 318 318 321 315 308 313 313 313 316 315 316 316 318 318 318 319 319 320 317 313 315 318 315 315 316 315 314 314 316 316 315 318 317 318
309 308 307 306 308 312 313 314 314 317 319 319 315 316 315 315 315 309 314 316 315 317 315 316 317 317 316 317 319 318 318 315 314 316 317 314 315 315 311 313 313 318 317 313 313 314 319
309 309 307 306 308 312 313 314 314 317 320 316 311 318 314 310 309 314 315 316 318 314 315 315 316 316 316 316 317 319 319 317 315 315 312 314 314 314 315 311 313 315 315 315 317 320 317
309 309 308 306 309 312 313 314 314 317 318 315 310 314 312 314 315 314 315 315 317 317 315 315 317 316 316 316 317 319 318 316 314 314 314 315 319 314 314 314 314 315 315 315 317 317 319
309 309 309 307 310 313 314 314 315 318 319 315 315 315 309 311 312 314 310 317 318 316 316 317 318 316 316 316 315 318 318 316 316 315 315 311 316 314 315 312 312 313 313 314 315 316 316
310 310 310 309 311 313 314 314 316 319 319 315 313 310 312 305 307 312 312 316 316 315 314 314 315 314 312 316 315 314 313 312 314 315 314 314 313 312 314 310 311 313 310 313 314 313 314
310 310 310 311 312 313 314 314 317 318 317 318 314 308 310 310 305 311 315 314 315 315 316 313 312 311 311 310 308 306 304 306 308 310 311 308 309 309 316 310 317 313 310 311 312 312 311
311 311 311 312 313 314 314 314 316 318 319 317 314 310 306 306 306 311 314 314 312 311 313 314 314 309 307 308 310 308 308 305 305 308 309 308 309 312 315 315 313 313 311 312 313 312 310
311 311 312 312 314 314 314 314 314 319 318 317 314 312 307 306 311 312 313 312 310 309 310 313 310 307 306 304 308 310 312 308 312 310 305 305 303 313 312 316 318 314 308 307 311 315 311
310 311 312 313 314 314 314 315 315 316 319 317 317 316 311 307 308 311 312 313 308 308 310 307 312 309 306 306 310 313 315 306 313 308 305 308 308 312 313 313 313 310 308 307 316 316 309
310 311 312 313 314 314 315 315 315 315 317 318 317 316 313 305 309 312 311 310 310 308 312 309 311 307 307 311 311 310 309 309 310 308 308 310 311 310 309 311 314 306 308 313 312 310 309
310 311 312 313 313 314 314 315 315 316 315 316 318 317 316 311 310 315 316 314 312 310 310 305 310 308 309 307 305 303 309 303 308 316 306 313 311 313 312 314 309 306 310 309 307 307 308

GFSGBSN_925_thetae_021.txt.gz
Theta_e
312 311 310 311 312 312 312 312 312 311 309 310 311 312 312 312 311 311 311 310 310 311 311 312 314 315 318 324 319 318 317 318 320 320 320 320 319 319 318 317 318 318 317 316 316 316 317
311 311 311 312 313 312 312 313 310 310 310 311 312 312 312 311 311 311 310 310 311 311 312 313 315 316 322 321 318 318 317 318 320 320 319 319 320 320 318 319 320 320 320 320 319 319 319
310 310 312 313 312 312 312 311 310 311 311 312 312 312 311 311 310 310 310 311 312 312 313 314 316 319 324 320 318 317 317 318 319 320 320 320 320 320 321 321 321 321 321 321 321 321 321
309 311 313 313 312 312 312 311 311 311 312 312 312 311 310 310 310 310 311 312 313 313 314 316 317 322 322 318 318 317 317 318 319 321 321 320 320 322 322 322 320 320 321 322 321 321 321
310 311 314 313 313 313 313 311 311 312 312 312 312 311 310 310 311 312 313 313 313 314 314 317 320 326 319 316 318 316 317 319 320 321 320 319 321 322 322 322 321 320 322 319 321 320 321
310 312 314 313 313 313 312 312 311 312 313 313 313 313 313 313 313 313 314 314 314 316 315 318 320 320 317 318 316 316 317 319 321 322 322 322 322 322 321 321 321 320 318 318 319 321 319
310 312 314 313 313 313 312 312 312 312 314 314 314 314 314 314 314 314 314 318 320 323 319 319 318 318 317 317 317 318 318 319 320 322 323 321 323 322 320 319 319 318 319 320 320 320 320
310 312 314 313 313 313 313 312 312 312 314 315 315 315 315 315 315 315 321 325 324 322 318 317 318 319 318 318 318 319 319 321 321 321 320 319 322 320 320 320 320 321 321 321 321 320 321
309 311 313 313 313 313 313 312 313 313 313 314 315 318 319 320 317 320 326 326 325 323 319 318 318 318 318 319 320 320 320 319 319 318 318 322 320 319 320 321 321 323 322 323 322 322 322
309 310 313 313 313 313 313 313 313 313 313 313 314 315 319 320 322 325 325 325 327 324 321 317 318 318 318 319 320 319 319 320 319 318 319 320 320 320 321 322 322 323 321 322 322 322 324
308 308 311 313 313 313 313 313 313 314 313 313 314 315 317 318 323 322 325 326 329 329 325 318 319 319 319 320 320 320 320 320 320 320 321 321 321 322 323 322 321 323 322 322 323 324 324
307 308 310 313 313 314 314 314 313 314 313 314 317 319 317 319 327 325 325 328 330 331 323 319 319 320 321 321 320 321 321 321 321 321 321 321 320 322 322 321 321 322 324 323 325 326 327
306 308 309 312 313 314 314 314 313 314 313 314 316 320 321 323 324 325 327 329 322 328 320 319 320 321 321 321 321 322 322 323 324 324 324 322 322 322 321 323 323 324 325 329 331 330 330
307 308 309 311 313 314 314 314 313 315 314 315 315 319 320 326 325 323 327 325 328 323 320 320 320 321 322 322 322 322 322 323 322 323 322 324 327 322 321 322 323 324 325 330 328 328 326
307 308 308 310 313 314 314 315 314 318 317 316 318 326 326 325 325 325 325 329 325 321 320 320 320 321 321 321 322 323 323 322 321 322 325 324 325 321 321 322 322 324 326 322 327 325 328
307 307 308 309 312 313 314 315 316 319 318 318 320 320 323 320 321 327 329 324 322 320 320 320 322 322 323 322 323 324 323 321 321 320 321 322 326 320 320 321 322 323 322 327 325 329 322
308 307 307 308 311 313 314 316 317 319 317 318 320 321 326 322 323 325 329 324 321 320 321 322 322 322 323 323 323 324 323 321 321 321 320 319 321 321 319 322 321 323 324 323 321 322 324
308 307 306 307 310 313 314 316 319 320 320 321 322 325 324 324 323 325 326 322 317 321 322 322 323 323 324 323 324 324 324 324 320 321 322 320 321 320 317 319 320 320 321 321 321 318 321
308 308 307 306 310 312 313 315 319 320 324 325 323 325 324 325 332 331 323 322 322 322 322 323 324 323 324 324 325 324 323 321 320 322 323 321 323 321 319 321 321 320 320 319 318 319 318
309 308 307 306 309 312 313 315 319 319 321 323 324 331 324 326 324 323 324 323 323 322 322 322 323 323 324 324 324 325 324 322 321 322 313 318 320 319 320 318 316 317 316 316 317 321 322
309 309 308 306 309 312 313 315 317 319 317 322 324 327 325 328 327 324 324 323 323 322 322 322 323 323 323 324 324 324 323 323 321 316 320 321 322 319 319 317 316 316 316 316 317 317 320
308 309 308 307 310 312 313 315 317 319 316 323 323 326 324 326 324 324 320 323 322 322 322 322 323 322 321 323 319 322 320 319 319 320 321 319 322 320 319 317 315 316 315 316 316 317 318
309 309 309 308 311 312 313 315 317 317 319 323 321 322 326 317 325 325 324 323 322 322 322 321 322 321 323 320 321 322 321 319 319 320 321 321 322 320 322 318 319 324 318 316 316 316 317
309 309 309 309 311 313 314 315 317 317 319 324 322 322 331 328 326 325 322 322 322 322 323 322 321 323 321 319 319 318 318 318 319 319 320 323 321 320 323 320 327 319 316 316 316 315 315
310 309 310 310 312 313 314 315 318 317 317 321 317 322 325 328 325 323 322 322 322 322 322 322 321 320 320 320 322 322 318 315 318 316 317 319 321 320 322 321 317 317 316 316 315 316 315
310 310 310 311 312 313 314 314 318 317 316 320 318 318 323 321 328 322 324 323 325 325 324 321 318 318 321 324 322 323 323 317 318 318 315 316 319 323 320 323 322 318 315 313 315 318 317
310 310 311 312 313 314 314 314 316 317 317 322 320 315 321 328 321 321 324 325 323 323 325 323 321 321 321 325 323 327 322 316 317 320 317 316 317 322 319 321 318 315 314 314 318 320 316
310 311 311 312 313 314 314 315 315 317 317 322 320 314 323 323 320 320 319 322 322 322 327 323 323 323 324 322 323 324 323 321 319 316 318 318 320 318 318 318 319 314 314 318 317 316 314
310 311 312 312 313 314 314 315 315 315 317 319 321 315 320 322 323 321 319 319 320 319 321 322 321 323 322 325 322 320 317 318 321 320 315 317 317 319 318 319 316 315 315 315 314 315 313

GFSGBSN_925_thetae_024.txt.gz
Theta_e
311 311 311 311 312 312 312 312 312 312 310 310 310 310 311 312 312 311 310 310 310 311 311 311 312 314 318 325 321 318 318 319 320 320 321 321 320 320 319 318 318 317 316 316 316 316 317
311 311 310 311 313 312 312 312 312 311 310 310 311 311 312 312 312 311 311 310 310 311 311 312 313 315 323 323 318 319 318 319 320 320 320 320 320 320 318 318 318 318 318 318 317 318 318
310 310 311 312 313 312 312 312 311 311 311 311 312 312 312 312 311 311 310 310 311 311 312 313 314 317 325 322 318 318 318 319 319 320 321 320 320 319 320 321 320 320 320 320 320 320 319
310 310 311 313 313 312 313 313 311 311 312 312 312 312 311 311 310 310 310 311 311 312 313 315 316 321 324 319 318 318 317 318 319 320 321 320 320 322 323 321 319 319 321 321 321 321 321
310 311 311 313 313 313 313 312 312 311 312 312 312 311 310 310 310 310 311 312 313 313 314 316 318 325 324 317 317 317 317 319 319 320 321 319 321 321 321 320 320 320 321 322 322 320 322
309 311 312 314 313 313 313 312 312 312 312 313 312 312 311 310 311 312 312 313 314 315 316 320 322 324 319 318 317 317 317 319 320 322 321 321 322 321 321 322 322 321 319 319 319 321 318
310 311 312 314 313 313 313 312 312 312 312 313 314 313 313 313 313 313 314 316 321 322 321 320 318 320 317 316 316 318 318 320 321 322 323 321 322 322 320 319 318 319 319 319 320 320 319
310 311 312 314 313 313 313 313 312 312 312 314 314 314 314 314 314 314 317 325 325 323 320 319 319 319 318 319 318 319 319 321 321 322 322 319 321 321 320 319 320 320 321 321 321 320 319
310 311 312 314 313 313 313 313 312 312 312 314 315 316 316 315 315 315 323 327 326 327 319 318 319 318 319 320 320 319 320 320 320 321 318 323 321 319 320 321 321 322 321 324 322 321 321
309 310 312 313 313 313 313 313 312 313 313 314 315 317 320 318 318 324 326 325 327 325 320 316 318 317 319 320 319 319 319 321 319 319 319 322 320 320 321 322 322 322 323 323 321 322 322
309 309 311 313 313 313 313 313 313 314 313 313 314 315 319 319 326 323 326 326 328 329 328 319 318 319 318 321 320 320 319 319 320 320 320 322 321 322 323 323 321 323 322 322 322 323 323
308 308 309 312 313 313 314 314 313 314 313 313 316 317 317 319 329 326 327 329 330 335 329 319 319 320 319 320 321 321 320 321 322 320 322 321 321 322 322 321 321 321 324 324 324 325 333
308 307 308 311 313 313 314 314 313 314 313 314 319 318 322 327 329 326 329 329 323 331 320 319 320 321 321 321 321 322 322 323 324 324 324 322 322 323 321 323 324 324 325 335 337 337 336
307 307 309 311 313 313 314 314 313 314 313 314 317 318 324 328 327 323 329 327 330 323 320 319 320 321 322 321 322 322 323 323 322 325 324 324 327 323 322 322 323 324 323 337 332 335 330
307 307 308 310 312 313 314 314 313 315 314 315 317 326 328 328 328 327 329 332 327 321 321 320 320 321 322 322 323 323 324 322 322 324 326 324 325 321 321 321 321 323 327 321 325 327 330
307 307 308 309 312 313 314 316 315 317 317 316 322 323 324 321 325 329 332 331 325 322 320 320 321 322 322 321 323 324 323 322 321 321 321 321 327 320 320 320 323 321 320 327 333 332 325
307 307 307 308 311 313 314 317 316 319 318 318 326 322 329 318 323 325 332 330 322 320 321 321 322 321 323 322 323 324 324 322 322 321 321 320 322 322 319 322 319 321 323 323 321 326 327
308 307 307 307 311 313 314 318 318 318 318 320 326 323 327 321 322 324 328 324 317 321 323 323 323 322 324 323 324 324 324 325 321 321 322 318 321 327 319 318 319 319 320 321 331 324 328
308 308 307 306 311 313 314 318 319 319 318 324 323 329 326 327 330 337 325 323 322 321 321 322 324 324 324 324 326 324 325 322 321 323 324 321 326 328 322 322 321 318 319 319 320 323 322
308 308 307 306 311 313 314 317 319 320 320 323 328 331 323 324 328 325 326 324 324 323 323 323 323 323 324 325 324 325 325 323 322 321 314 320 322 320 324 319 317 317 316 317 317 326 323
309 308 307 306 311 312 313 317 319 319 321 319 328 327 322 327 327 325 323 323 324 324 323 322 323 323 324 325 324 325 324 323 321 316 320 322 323 321 319 316 316 316 316 316 317 317 319
309 309 308 307 311 313 313 316 317 318 317 322 328 326 326 326 325 325 322 324 324 322 323 322 323 323 324 326 323 324 323 321 321 320 321 320 325 323 321 316 315 316 316 316 316 316 316
309 309 308 309 311 313 313 316 317 317 318 326 324 325 326 322 326 328 327 324 323 323 323 323 323 323 326 324 323 321 321 320 320 322 321 323 327 324 325 319 320 326 321 316 316 316 317
309 309 309 309 312 313 313 316 317 317 322 327 327 324 334 331 328 325 324 323 323 323 322 322 322 326 323 319 319 319 319 319 319 320 320 323 322 322 323 320 324 318 315 316 316 316 315
309 309 309 310 312 313 313 316 317 316 319 323 321 327 328 323 328 324 323 322 324 323 323 324 323 321 321 321 326 319 321 316 318 317 318 320 323 321 326 322 318 317 317 317 316 316 316
309 310 310 311 312 313 314 315 317 317 320 323 318 323 327 323 331 323 323 324 327 327 325 322 321 320 321 328 325 324 327 319 321 318 317 318 323 324 320 320 321 320 316 315 315 318 318
310 310 310 311 313 313 314 314 317 317 320 324 320 320 327 332 323 325 327 327 324 327 327 324 322 323 322 325 319 331 325 317 321 321 319 317 319 324 319 317 319 315 316 315 317 320 317
310 310 311 312 313 314 314 315 315 316 319 324 319 318 327 326 323 323 322 325 324 326 331 325 325 326 330 319 323 327 323 325 322 319 318 317 319 317 317 319 319 315 315 318 318 317 315
310 311 311 312 313 314 314 315 315 315 317 322 322 319 322 325 324 323 321 321 321 322 324 325 322 324 326 325 324 325 316 316 320 325 315 321 322 324 320 320 318 317 317 316 315 313 312

GFSGBSN_925_thetae_027.txt.gz
Theta_e
312 310 310 311 311 311 312 312 312 312 311 310 310 310 310 311 311 312 311 310 309 310 310 310 311 312 317 325 322 317 318 318 318 317 321 322 320 316 316 316 315 312 313 313 313 313 314
311 310 311 311 311 312 312 312 312 312 311 311 311 311 311 311 312 311 311 310 310 310 310 311 312 313 320 323 320 319 318 318 319 319 321 321 319 317 317 317 315 314 313 312 313 315 316
310 311 310 311 312 313 312 312 313 311 311 311 311 312 312 312 312 311 311 310 310 310 311 312 313 316 324 326 320 318 318 318 319 319 319 319 319 318 318 319 318 316 316 314 314 315 316
310 310 310 311 313 313 312 313 312 311 311 312 312 312 312 311 311 311 311 310 310 311 312 313 314 320 325 320 319 318 317 318 318 319 321 320 320 320 321 317 317 317 316 317 317 316 316
310 309 310 312 313 312 313 313 312 312 312 312 312 311 311 310 310 310 310 310 311 312 313 313 316 323 324 318 316 317 317 318 319 319 320 319 319 320 319 317 316 317 316 318 319 317 319
310 310 311 312 313 313 313 313 312 312 312 312 312 311 310 310 310 310 311 312 313 314 315 316 319 323 323 319 317 316 317 318 319 320 320 319 318 318 315 316 320 318 318 320 317 318 316
309 309 311 313 313 313 313 313 312 312 312 313 313 312 311 311 311 312 312 314 319 321 321 320 320 322 317 315 315 316 317 319 319 321 320 319 318 318 317 317 317 318 318 317 317 317 318
309 310 311 313 313 313 313 313 312 312 312 314 314 314 313 313 313 313 315 324 325 323 320 321 319 318 317 318 317 317 319 319 320 320 320 318 319 318 318 319 319 319 320 321 318 318 317
309 310 311 313 313 313 313 313 312 312 312 314 314 314 314 314 314 314 315 324 325 324 318 318 318 317 318 319 319 317 319 319 319 320 320 319 318 318 319 321 321 321 322 321 320 319 319
309 310 311 312 313 313 313 313 313 313 313 313 315 316 315 315 315 316 321 325 327 327 317 317 318 317 318 319 319 318 318 319 319 320 319 319 319 320 320 321 320 324 322 322 321 320 320
309 310 310 312 313 313 313 313 313 313 313 313 313 318 319 316 320 328 326 326 325 328 320 317 319 316 317 320 318 318 318 319 320 319 320 320 320 321 323 321 320 322 321 321 322 321 321
309 309 309 311 313 313 313 314 313 313 313 313 314 315 318 320 324 327 324 326 327 328 323 320 318 319 317 320 320 318 319 320 321 319 318 319 319 320 320 321 320 320 322 323 322 322 323
309 308 308 310 312 313 313 314 313 313 313 314 318 317 320 328 330 325 324 329 321 327 322 318 319 320 320 320 321 320 320 321 322 321 321 321 322 321 321 322 321 321 322 325 326 325 325
309 307 308 310 312 313 313 314 313 313 313 314 319 319 326 329 327 324 328 325 329 324 319 318 320 321 321 321 321 321 321 321 320 324 324 324 324 320 321 321 321 322 322 321 329 326 325
308 307 308 309 311 313 313 314 312 313 314 315 317 321 328 324 320 321 326 328 328 323 320 320 320 322 321 322 322 322 321 321 319 319 324 326 323 320 319 319 320 320 321 319 322 323 319
308 307 308 309 311 313 313 315 313 315 315 315 322 325 328 323 318 327 327 328 325 321 320 320 321 321 321 321 322 323 323 321 320 319 320 320 323 319 319 319 322 320 319 320 321 323 325
308 307 307 308 310 313 313 316 315 316 316 316 324 320 328 325 318 322 325 330 322 320 322 323 322 321 323 321 322 324 323 321 321 320 317 318 322 320 318 318 318 319 321 320 320 318 320
308 307 307 307 310 313 313 317 316 318 317 318 326 321 327 324 318 321 324 327 316 320 322 323 323 322 323 322 324 324 325 323 319 320 320 317 319 316 319 318 318 318 320 320 316 320 315
308 307 307 306 310 313 314 318 317 318 317 321 323 326 327 329 318 319 324 322 321 321 321 322 323 324 323 325 324 326 324 321 321 321 321 320 320 318 320 320 320 317 318 319 319 313 316
308 307 307 306 310 312 314 318 318 318 317 324 326 322 324 324 324 327 327 323 324 322 323 323 323 323 324 324 324 326 324 323 320 318 314 319 320 317 318 318 315 315 315 315 318 314 316
308 308 307 306 311 312 314 317 318 319 318 321 326 324 319 318 319 324 325 323 325 324 322 322 322 323 323 324 324 325 324 323 321 315 319 319 320 320 319 315 315 315 314 314 315 315 314
308 308 307 307 311 312 314 317 318 319 320 320 328 328 321 319 318 323 322 323 324 323 322 322 322 322 323 324 324 324 323 321 322 318 321 319 318 317 316 317 315 314 314 316 315 315 316
309 309 308 309 312 313 314 317 317 317 317 324 325 325 325 323 318 323 323 324 324 323 322 323 322 322 319 321 318 318 317 317 319 320 320 321 314 312 315 316 315 314 317 316 316 315 315
309 309 308 310 312 313 314 317 316 317 322 326 325 327 319 318 324 324 325 323 324 322 323 323 322 320 319 316 312 313 312 313 318 316 321 315 315 309 308 308 306 318 314 315 315 314 314
309 309 309 311 312 313 314 317 316 317 322 322 323 327 316 313 325 324 322 323 322 322 323 322 321 319 316 319 314 310 310 305 312 316 317 318 310 307 313 313 313 315 316 315 314 316 316
309 309 310 312 313 313 314 317 317 319 320 317 321 326 321 314 319 325 322 321 322 322 321 321 319 319 321 310 306 309 314 314 316 317 313 316 310 308 305 311 308 313 315 313 314 311 315
309 310 310 312 313 313 314 315 316 320 323 320 316 323 328 319 321 323 323 322 322 322 319 320 321 320 318 307 312 312 314 316 317 315 311 307 312 311 305 306 310 313 314 314 313 311 313
309 310 311 312 313 314 314 314 316 317 323 321 317 324 325 318 320 322 322 323 323 321 316 319 314 314 309 315 311 310 311 311 314 316 313 309 309 310 312 314 310 314 315 312 311 313 311
310 310 311 312 313 314 314 314 314 316 321 323 318 322 322 321 321 321 320 321 321 322 320 318 316 321 317 313 308 311 312 313 311 312 314 314 312 311 311 310 311 314 314 313 311 310 309

GFSGBSN_925_thetae_030.txt.gz
Theta_e
314 312 311 310 310 311 311 312 312 312 312 311 311 310 310 310 311 311 311 311 310 309 309 310 310 311 316 323 318 319 317 317 316 316 317 319 321 316 314 314 312 311 312 311 312 313 311
313 312 311 310 310 311 312 312 312 312 312 311 311 311 311 311 311 311 311 310 310 309 310 310 311 313 318 321 318 318 318 317 317 317 319 319 319 317 316 313 312 311 311 311 312 314 315
313 311 310 309 310 311 312 312 312 312 312 311 311 311 311 311 312 311 311 310 310 310 310 310 312 315 322 322 319 319 317 317 317 318 318 318 318 318 318 315 312 311 312 312 313 314 315
313 311 309 309 311 312 313 312 312 312 311 311 311 311 311 311 311 311 310 310 310 310 310 312 313 319 319 316 317 318 317 317 318 319 320 319 319 318 318 316 315 316 314 315 315 314 316
312 311 309 309 311 312 312 312 312 312 311 312 312 311 311 311 311 310 310 310 310 311 312 313 316 321 316 319 317 318 316 316 318 319 320 319 318 318 315 314 313 314 314 316 317 314 316
312 311 309 310 312 313 312 313 312 312 311 312 312 311 310 310 310 310 310 311 312 313 315 316 318 320 320 321 316 316 317 317 318 318 318 317 314 315 313 314 316 317 315 317 316 316 316
312 310 309 311 312 313 313 313 312 312 312 312 312 312 310 309 310 310 311 313 315 318 319 314 317 321 318 318 316 315 317 318 318 319 319 318 317 316 315 314 316 317 316 316 316 317 317
312 310 309 311 312 313 313 313 313 312 312 313 313 313 312 311 311 312 314 321 320 322 317 318 320 319 319 315 316 316 317 318 318 319 319 316 317 316 316 318 319 319 319 319 317 317 315
312 310 309 311 312 313 313 313 313 312 312 313 314 314 313 313 313 313 314 321 322 325 323 317 317 316 317 318 317 316 318 318 319 318 318 317 317 317 320 319 320 321 320 320 319 318 316
311 309 310 311 312 313 313 313 313 312 313 313 314 314 314 314 313 317 315 324 327 327 314 317 317 316 318 317 317 317 317 318 319 318 316 317 317 319 320 320 319 323 321 320 319 317 317
310 309 310 311 312 313 313 313 313 312 313 313 314 316 315 314 319 324 326 325 326 325 314 314 317 316 316 319 317 317 317 319 318 317 317 319 320 320 320 320 319 321 319 320 320 319 320
309 309 310 310 312 313 313 313 313 313 313 313 313 318 318 316 322 327 325 323 325 323 318 318 317 317 316 318 317 317 318 318 319 318 316 318 318 319 319 319 319 319 321 322 320 320 321
309 309 309 309 311 312 313 313 313 313 313 313 317 316 318 324 328 325 320 319 317 322 319 317 317 316 318 319 319 318 319 319 321 319 320 320 320 319 319 321 319 318 321 322 324 322 323
309 309 308 308 311 312 313 314 313 313 313 316 317 317 324 329 327 323 326 317 327 324 319 316 319 319 319 319 319 320 319 320 318 322 320 322 323 319 318 319 320 320 321 319 326 323 321
309 309 307 308 310 312 313 314 313 313 313 316 318 323 326 322 320 319 319 323 325 323 318 318 319 320 321 320 320 320 319 319 318 318 322 323 321 319 318 318 318 320 319 317 320 317 316
309 308 307 308 310 312 313 314 312 313 314 315 320 325 326 322 319 323 323 324 325 319 320 319 320 320 320 320 321 321 321 320 319 318 317 319 321 319 319 318 319 317 317 321 316 321 324
308 307 307 308 310 312 313 315 312 314 315 316 324 314 325 322 320 316 321 325 325 320 321 321 321 319 320 319 320 322 322 321 319 319 315 319 318 318 319 317 317 317 319 318 317 315 319
308 307 307 307 309 312 313 316 314 315 316 318 320 317 327 325 310 316 320 323 320 319 320 321 322 323 320 320 323 324 323 321 319 321 317 317 315 314 318 317 317 317 319 317 315 318 313
308 307 307 306 310 312 314 317 316 316 316 319 318 322 328 327 310 312 318 322 320 320 320 321 322 322 322 323 325 324 322 320 317 319 321 317 316 315 318 318 317 316 318 319 314 310 315
307 307 307 306 310 312 315 318 317 317 317 324 319 319 318 319 315 317 325 321 323 321 321 321 321 321 322 323 322 324 323 322 317 316 314 318 317 315 317 317 314 314 314 316 315 312 314
308 307 307 306 311 312 315 317 317 317 317 320 321 319 314 315 315 323 322 321 323 322 321 320 321 322 322 323 324 323 322 321 319 315 318 317 318 318 317 314 314 313 313 313 314 313 314
308 307 307 307 312 313 316 317 318 317 317 320 324 323 316 313 314 319 320 322 323 322 321 321 321 322 321 322 321 323 321 320 319 316 319 316 316 314 313 315 314 313 312 314 314 314 314
308 308 307 310 312 313 317 316 318 319 319 320 322 323 317 317 313 318 320 320 323 321 321 322 321 318 316 319 316 315 315 316 318 317 319 317 311 308 308 312 311 310 315 316 314 313 314
308 308 307 311 313 313 317 316 317 316 319 325 325 322 317 315 316 317 323 322 322 321 322 321 319 317 318 314 310 307 308 312 314 316 316 312 311 304 304 303 302 311 312 313 315 316 314
308 308 309 312 313 314 316 316 317 318 320 324 323 322 313 309 320 322 322 322 321 320 321 321 320 316 314 314 308 308 308 306 310 315 317 313 305 306 302 310 307 312 314 314 313 316 315
309 309 311 312 313 314 316 316 319 321 321 320 324 326 313 312 317 323 320 320 319 319 317 319 318 318 312 304 303 308 311 307 314 317 311 312 305 303 306 302 302 307 313 312 311 312 314
309 309 311 312 313 314 315 316 319 322 320 317 322 325 321 315 318 321 319 320 318 316 315 318 319 318 310 301 311 304 313 312 314 312 309 306 303 308 297 300 306 308 313 312 313 311 312
309 310 311 313 313 314 314 315 317 321 319 318 322 324 322 313 319 319 319 320 319 316 314 315 313 310 309 307 304 312 304 308 311 313 311 309 309 306 303 301 309 309 313 312 309 311 309
310 311 312 313 313 314 314 314 315 320 321 318 322 322 322 316 319 319 318 319 321 319 316 313 311 314 311 309 307 312 305 310 307 312 312 312 308 309 310 310 307 310 311 311 310 308 307

GFSGBSN_925_thetae_033.txt.gz
Theta_e
313 313 314 312 311 309 310 310 311 312 311 311 312 311 310 310 310 310 311 311 311 309 309 309 310 311 315 321 317 318 319 316 317 316 315 316 318 318 315 313 311 311 311 311 311 310 309
313 312 314 312 310 309 310 311 312 312 311 312 311 311 311 311 311 311 311 311 310 309 309 309 310 312 317 315 317 318 318 317 316 315 317 317 318 317 315 313 311 311 310 310 312 312 313
313 312 313 311 309 309 310 312 312 311 312 312 311 311 311 311 311 311 311 311 310 309 309 310 311 315 320 317 317 316 317 317 316 317 317 318 319 316 314 312 311 310 311 311 312 313 314
313 312 312 311 309 309 311 312 312 312 312 311 311 311 311 311 311 311 311 310 310 309 310 311 313 317 318 315 317 318 318 316 317 317 319 318 317 316 315 312 312 313 311 313 314 313 313
314 312 312 311 309 309 311 312 312 312 312 311 311 311 311 311 311 311 310 310 309 310 311 313 315 319 314 315 317 317 316 315 318 318 319 318 317 314 313 312 312 311 314 315 316 313 314
314 312 312 310 309 310 312 312 312 312 312 311 311 311 311 310 310 310 310 309 311 312 313 315 317 318 317 317 317 316 316 316 317 317 316 315 313 312 311 311 312 315 316 315 315 315 315
314 312 312 310 309 311 312 312 312 312 312 311 312 311 310 309 309 309 309 312 314 316 317 312 314 318 319 317 314 315 316 317 317 315 317 316 314 315 314 314 315 315 315 316 315 314 313
314 312 312 310 309 311 312 312 312 312 312 311 312 312 310 309 309 310 313 316 316 320 317 317 318 318 318 318 315 315 317 317 317 317 318 315 317 316 316 318 317 317 316 317 317 316 313
314 312 312 309 309 311 312 312 312 312 312 312 313 313 312 311 311 312 313 319 323 319 321 318 315 315 316 316 315 316 317 317 318 318 317 316 316 317 317 317 321 320 319 319 318 315 313
314 312 312 309 310 311 312 312 312 312 312 312 313 313 313 313 313 313 313 317 326 325 313 315 316 315 316 316 316 316 316 317 318 317 315 316 318 319 318 318 319 322 320 319 318 315 316
314 312 311 309 310 311 312 312 312 313 312 312 313 314 313 313 319 322 324 325 327 321 316 312 316 315 315 317 316 315 316 317 317 317 316 318 319 319 319 319 318 320 318 319 319 317 317
314 312 310 309 310 312 312 312 313 313 312 312 313 314 314 313 318 326 325 325 323 320 315 315 316 315 316 317 316 316 316 316 317 316 315 318 317 318 318 318 318 318 320 319 319 318 320
313 312 310 309 309 311 312 312 313 313 312 312 313 317 316 321 327 326 323 315 314 321 317 316 317 315 316 318 318 316 318 318 319 317 319 319 319 317 318 320 318 318 319 320 323 320 322
312 311 309 309 309 311 312 313 313 312 312 312 316 317 318 326 328 323 321 313 322 322 317 315 317 316 318 318 318 319 318 318 317 318 318 321 321 318 317 318 319 320 319 317 327 322 319
312 310 309 308 309 311 312 313 313 312 312 316 317 316 325 325 323 323 313 315 321 321 317 317 318 318 320 319 319 318 318 318 317 318 321 320 320 318 317 317 317 320 317 316 318 315 315
311 309 309 308 309 311 312 313 313 312 313 318 320 324 324 322 322 321 318 319 324 320 319 317 319 318 319 319 320 319 320 319 318 316 316 319 320 318 317 317 316 315 316 320 314 319 323
309 309 308 308 309 311 313 313 313 312 313 317 323 312 324 323 319 312 316 322 326 318 320 318 318 319 318 318 319 321 321 319 318 319 315 318 315 316 318 316 316 316 317 315 316 314 318
309 308 307 308 309 311 313 313 313 313 315 319 315 314 326 325 309 312 319 322 320 318 318 321 321 321 318 319 323 322 322 320 318 319 316 316 313 314 317 315 316 315 318 314 311 316 311
309 307 307 308 309 312 313 315 313 314 315 320 316 322 326 319 308 311 315 320 320 319 319 320 321 321 320 322 323 322 321 319 315 318 318 316 314 314 316 316 315 316 317 315 311 309 314
308 307 307 307 310 312 314 317 314 315 316 321 316 319 316 316 310 313 320 322 322 320 320 320 320 320 320 322 321 322 322 320 315 314 313 315 316 313 315 315 314 313 313 315 313 311 313
307 307 306 307 311 312 315 317 315 315 317 321 317 316 314 316 318 320 319 321 322 321 320 318 320 321 320 322 323 322 322 320 317 314 316 314 316 317 313 312 313 313 312 313 314 312 313
307 307 306 308 312 313 316 317 316 316 319 319 322 317 313 310 313 319 319 322 321 321 320 321 319 321 320 319 319 321 320 318 315 315 317 314 313 313 313 313 313 312 310 310 310 311 313
307 307 306 310 312 314 316 317 317 317 317 317 318 320 314 312 312 314 317 320 321 320 321 320 319 317 316 318 316 314 314 315 315 316 317 313 309 306 305 309 307 306 308 313 313 312 311
307 306 309 312 313 316 316 317 317 317 317 322 324 317 315 314 311 314 320 320 321 319 321 320 317 316 316 310 307 307 307 312 315 314 313 310 307 301 302 302 302 307 309 311 312 315 313
308 307 311 312 313 316 316 316 317 317 317 321 323 318 311 308 316 320 320 320 319 318 319 320 319 314 311 308 306 307 306 306 309 313 312 310 304 305 303 306 305 309 313 314 313 312 312
308 310 312 313 314 315 316 317 317 317 318 321 323 320 312 314 318 320 319 318 317 316 316 319 316 313 308 301 303 305 307 306 313 316 311 308 302 303 305 300 301 305 312 310 311 312 312
308 310 312 313 314 315 316 319 321 321 322 321 323 323 317 314 317 319 318 318 314 314 314 318 318 317 307 300 301 305 311 309 313 311 308 306 301 304 295 299 305 305 311 310 313 308 311
309 311 312 313 314 314 315 318 321 319 317 320 322 323 319 313 318 318 318 318 316 314 313 314 312 309 303 305 302 305 300 308 310 311 310 310 308 308 301 302 310 306 310 311 309 309 310
310 312 313 313 314 314 315 317 321 318 320 321 322 320 320 315 317 317 317 317 318 314 314 310 313 312 309 305 302 306 302 308 305 309 310 309 307 309 309 310 307 307 310 308 308 309 307

GFSGBSN_925_thetae_036.txt.gz
Theta_e
315 314 313 312 314 312 310 309 309 310 311 311 311 311 311 311 310 310 310 310 310 310 309 308 309 310 314 319 315 316 317 317 317 316 315 315 316 316 317 312 311 310 311 310 308 308 311
316 314 313 312 313 313 310 309 309 310 311 311 311 312 311 311 311 311 310 310 311 310 309 309 309 311 315 315 315 317 317 316 316 316 315 314 316 316 316 313 311 310 309 310 310 309 309
316 315 313 312 312 312 310 308 310 311 312 312 312 311 311 311 311 311 311 311 310 309 309 309 311 314 318 317 316 315 317 317 316 315 315 315 316 316 313 313 310 309 311 310 311 312 313
317 315 314 313 312 312 309 308 310 311 312 312 312 311 311 311 311 311 311 311 310 309 309 310 312 316 317 315 315 317 319 316 314 316 316 317 317 315 313 311 311 312 310 311 312 313 311
317 315 314 313 311 311 309 309 311 312 312 312 312 311 311 311 311 311 310 310 309 309 310 313 314 318 316 315 317 317 315 315 316 316 316 315 314 313 312 311 311 311 313 314 316 312 313
317 315 314 313 311 311 309 309 311 312 312 312 311 311 311 310 310 310 310 309 310 312 312 314 316 317 315 315 318 315 315 315 316 316 315 315 311 312 310 310 313 313 314 314 315 314 312
317 315 315 314 311 311 309 309 312 312 312 312 311 311 311 310 309 309 309 312 312 313 316 313 313 314 317 317 314 314 315 316 315 314 317 314 313 313 314 313 313 314 313 315 314 313 312
316 315 314 314 312 311 309 310 312 312 312 312 311 312 311 309 309 309 311 312 313 316 319 315 315 316 317 316 316 314 316 317 316 316 316 314 315 314 316 315 316 314 314 316 315 312 314
316 316 315 314 312 311 309 310 312 312 312 312 311 312 311 309 309 311 313 316 320 321 320 318 316 314 313 316 315 314 316 316 316 317 315 315 316 316 317 318 319 318 317 318 317 315 313
317 316 315 314 312 311 309 311 312 312 312 312 312 312 312 311 311 312 312 315 326 321 312 314 315 315 315 315 316 315 315 316 316 316 314 317 317 317 316 317 318 321 318 317 316 313 317
318 317 315 314 311 310 309 311 312 312 312 312 312 313 312 312 316 317 318 325 327 317 314 313 315 315 314 315 314 315 315 316 315 316 315 318 318 318 318 318 317 319 316 317 316 315 315
317 317 316 314 312 310 309 311 312 312 312 312 312 313 312 312 316 320 325 324 319 318 319 315 315 315 316 316 315 315 316 315 314 316 315 317 316 317 317 317 317 316 319 317 317 316 319
316 318 316 313 312 309 310 311 312 312 312 312 312 313 312 313 323 327 324 312 314 318 316 316 315 315 316 317 316 316 317 317 316 318 319 318 318 315 317 319 317 317 318 319 322 319 321
314 318 315 313 311 309 310 311 312 312 312 312 311 313 314 319 327 327 319 311 316 318 317 314 314 315 317 317 317 317 317 318 316 315 317 319 320 317 315 318 319 319 317 319 326 323 320
306 318 315 312 311 309 310 311 312 312 312 312 312 315 319 322 326 324 310 312 314 319 316 316 316 317 319 318 318 317 317 317 316 317 319 319 319 317 316 317 317 319 316 314 317 314 314
305 318 315 312 309 310 310 311 312 313 312 312 315 315 323 324 324 318 311 312 320 321 317 316 316 317 319 319 319 318 319 318 317 314 316 318 320 316 316 316 314 315 314 318 313 317 320
307 317 314 311 309 310 310 312 312 313 312 316 320 316 322 325 319 310 312 314 323 322 318 317 317 318 317 318 318 320 319 319 317 318 315 316 314 315 317 314 316 316 316 314 314 312 316
313 315 312 310 309 309 310 312 313 312 313 317 310 314 325 323 311 310 316 320 321 317 317 320 319 317 317 318 321 320 320 319 317 318 316 315 312 314 316 314 315 314 316 311 308 312 310
315 313 311 309 308 309 311 312 313 311 314 320 317 321 323 314 311 310 313 319 319 317 318 320 321 319 319 321 321 320 320 318 314 317 315 313 313 314 315 312 313 316 316 312 309 308 313
314 312 309 308 308 309 312 313 313 312 315 319 316 320 316 312 308 312 316 319 321 319 319 318 319 318 319 322 319 321 321 318 314 314 314 313 313 313 315 312 313 312 315 313 312 310 312
312 310 309 307 308 310 312 314 313 313 316 319 314 316 316 317 318 312 313 317 320 320 319 317 319 319 320 322 321 321 321 319 314 314 315 312 315 315 312 312 312 311 311 313 313 311 312
310 309 307 308 308 312 313 316 313 314 317 318 320 314 309 310 317 316 315 319 319 320 320 320 319 319 319 319 318 320 318 316 312 315 316 312 313 311 314 312 311 312 309 309 310 310 310
309 307 307 306 311 312 315 316 314 315 319 316 317 315 311 309 313 315 316 319 319 319 320 318 317 316 318 318 316 314 313 312 313 315 315 311 308 308 309 307 305 305 307 308 310 310 309
307 307 306 310 312 315 316 317 315 315 319 320 321 315 313 309 309 317 317 318 319 319 319 318 315 314 314 307 307 307 307 311 313 312 310 308 306 299 301 301 301 306 308 308 310 311 309
307 306 310 312 314 316 316 317 316 315 318 323 322 316 310 306 309 315 318 319 317 316 318 319 317 312 308 305 307 310 306 308 309 310 307 307 303 302 302 304 304 307 310 312 312 311 311
306 310 312 314 315 315 316 317 316 316 316 319 322 321 312 311 314 316 318 317 316 315 316 318 315 310 305 299 303 306 310 311 312 316 309 306 301 304 300 300 300 305 309 310 310 312 310
310 312 313 314 315 316 316 317 316 316 316 318 323 322 315 314 316 317 316 317 312 312 313 316 316 316 306 299 300 303 307 306 311 310 309 307 303 302 293 298 303 303 309 309 313 309 309
312 313 313 314 315 317 319 319 317 317 317 320 321 323 316 312 316 317 317 315 314 312 313 313 312 309 302 306 303 303 301 307 309 310 311 311 310 311 301 299 309 305 310 311 309 307 308
313 313 314 314 315 316 319 320 321 320 319 318 320 318 318 314 315 316 315 316 317 312 312 309 313 311 308 304 298 300 303 307 305 308 308 310 307 307 307 309 306 304 308 308 306 307 307

GFSGBSN_925_thetae_039.txt.gz
Theta_e
317 317 316 314 313 312 312 313 310 309 309 310 311 311 311 311 311 310 310 310 310 310 310 309 308 309 314 318 317 314 316 316 315 314 315 314 315 317 319 317 313 313 311 310 310 312 318
318 316 317 315 313 312 311 313 311 309 309 310 311 311 311 311 311 310 310 310 310 310 310 309 309 311 315 315 313 316 317 316 316 314 314 314 316 316 317 314 313 311 311 309 308 311 311
319 317 316 316 314 313 312 312 311 308 309 311 311 311 311 311 311 311 310 310 310 310 309 309 310 313 317 317 315 316 315 316 316 316 315 314 315 317 316 313 310 310 313 312 312 312 313
319 318 316 317 314 313 312 311 310 308 309 311 311 312 311 311 311 310 310 311 310 309 309 309 311 315 318 313 314 315 316 316 314 315 315 315 315 316 314 312 313 313 313 314 313 312 311
321 318 316 317 315 313 312 311 310 308 310 311 311 312 311 311 311 310 310 310 309 309 309 313 313 317 318 314 315 316 314 314 314 315 315 314 316 315 312 314 316 314 314 315 315 313 313
320 319 317 317 315 314 313 310 310 308 310 311 312 312 311 311 310 310 310 309 309 310 312 313 315 318 314 315 317 315 314 315 316 315 316 315 314 315 313 314 317 316 316 315 316 314 316
315 320 317 316 316 314 313 310 310 308 310 311 312 312 311 311 310 309 309 312 313 313 314 314 313 314 314 316 314 313 314 316 315 317 319 316 318 317 315 313 312 314 315 316 314 312 320
311 319 319 316 316 314 313 311 310 308 311 312 312 312 311 311 309 309 309 311 312 315 320 315 315 315 315 316 316 313 315 316 317 318 316 317 317 314 316 315 315 315 317 317 315 314 319
311 318 320 316 316 315 313 311 310 309 311 312 312 311 311 311 309 309 310 313 319 319 323 317 316 315 313 315 316 314 315 315 316 317 315 318 316 315 318 318 320 319 319 318 318 317 316
305 309 315 318 316 315 313 311 310 309 311 312 312 311 311 310 310 310 310 312 313 320 315 314 315 315 314 314 315 313 314 316 316 316 315 319 317 316 317 319 318 322 318 317 316 317 321
305 303 306 316 317 315 313 311 310 309 311 312 312 311 312 310 312 312 315 316 326 316 317 314 314 314 313 315 314 315 315 315 316 316 316 319 318 318 319 318 316 320 317 318 316 318 319
305 304 303 309 317 315 314 311 309 310 311 312 312 311 312 311 312 316 323 324 318 321 320 314 314 314 316 315 314 314 317 315 314 318 318 317 315 317 317 316 316 318 320 320 319 321 325
304 303 302 308 316 316 314 311 309 310 311 312 312 311 312 312 316 323 325 314 317 322 316 315 314 315 316 316 316 317 318 319 319 321 321 319 318 316 316 320 318 320 322 325 326 328 326
304 304 303 306 316 317 314 311 309 310 311 312 312 311 312 312 315 326 316 313 318 316 318 313 313 315 317 316 317 317 318 320 317 317 319 321 320 317 316 318 321 320 322 329 326 329 326
302 304 304 308 315 317 313 311 309 311 312 312 311 311 312 313 314 317 312 315 317 315 317 315 315 317 318 317 318 318 317 317 316 316 321 322 320 316 315 317 318 320 319 316 321 315 321
302 305 304 308 315 317 313 310 309 311 312 312 312 313 316 318 321 315 314 314 314 318 317 314 315 317 319 319 319 319 318 317 317 314 316 319 322 315 315 315 316 318 316 322 319 321 320
301 303 304 305 310 316 312 309 310 311 312 311 316 317 319 324 320 311 315 313 319 321 317 316 316 317 317 319 318 319 319 318 316 316 316 315 319 318 316 316 319 319 319 316 317 317 318
301 303 304 304 306 316 312 309 310 311 311 313 312 315 322 319 313 310 315 314 320 319 316 319 316 316 317 318 320 320 321 319 316 317 319 314 316 320 318 314 314 315 317 316 317 314 315
301 304 303 303 307 315 311 309 310 311 312 317 312 320 319 310 314 312 313 318 319 317 318 319 320 318 319 321 322 320 320 316 314 315 318 315 317 320 318 316 315 317 316 312 311 313 317
302 305 304 306 309 313 309 309 310 312 313 319 318 321 318 310 309 313 316 317 320 318 319 317 318 319 321 321 320 321 321 317 313 315 313 314 314 318 322 316 315 315 317 313 315 318 315
303 304 306 306 313 311 309 309 310 312 315 317 313 318 318 318 315 311 313 317 319 320 318 316 319 319 320 322 321 321 320 317 314 315 315 314 317 315 312 312 312 311 312 315 315 314 318
306 305 309 313 312 309 309 309 311 312 315 317 316 315 309 312 315 313 315 318 319 319 319 319 320 319 318 320 320 322 320 316 313 316 316 312 317 312 315 312 311 313 311 311 313 312 313
305 306 311 312 309 308 308 310 312 312 316 315 316 311 312 309 313 313 315 318 318 320 319 317 318 318 318 318 316 314 313 313 314 317 315 313 314 314 315 308 307 312 311 312 311 311 313
308 310 311 309 308 308 308 311 313 313 317 318 319 312 311 310 313 313 316 318 318 318 320 317 315 316 313 310 309 310 310 313 313 310 310 310 307 304 310 304 309 310 309 309 310 310 310
311 309 308 307 307 308 310 313 315 313 317 323 320 314 310 307 309 314 317 318 317 316 318 318 317 311 309 308 313 315 312 313 311 310 307 307 307 307 314 309 307 308 307 311 313 313 311
309 307 307 307 308 311 314 315 314 314 319 322 322 316 310 310 311 313 318 316 317 316 317 316 312 307 306 305 310 315 318 315 313 315 310 306 305 314 307 310 310 308 307 310 311 317 310
307 306 307 310 312 314 315 316 314 315 318 321 322 316 316 316 316 315 317 317 313 314 315 314 313 314 307 306 311 314 314 308 313 312 313 312 310 314 302 313 310 306 307 309 314 314 309
307 311 312 313 314 314 315 316 315 315 317 319 321 321 317 313 316 316 316 314 313 314 317 314 315 313 308 313 314 310 312 311 312 310 313 314 314 313 304 310 315 306 311 315 314 308 309
312 313 313 314 315 315 316 316 315 315 316 320 318 318 317 314 315 314 314 314 315 311 313 310 315 313 312 311 305 304 309 308 308 316 308 314 313 314 311 315 309 306 310 309 308 309 310

GFSGBSN_925_thetae_042.txt.gz
Theta_e
321 319 318 316 316 315 313 312 311 312 310 309 309 310 311 311 311 311 311 310 310 310 310 310 309 308 315 320 318 314 316 316 313 314 316 319 317 317 317 317 318 317 316 315 323 324 323
323 320 319 318 316 316 314 313 311 312 310 308 309 310 311 311 311 311 311 310 310 310 310 310 308 309 318 318 314 317 316 316 317 315 317 318 318 317 320 320 318 317 313 315 318 323 321
317 323 320 319 317 316 315 313 312 311 310 308 309 311 311 311 311 311 310 310 310 310 310 310 309 313 318 318 315 319 317 317 318 317 319 318 318 319 320 319 313 314 313 313 315 319 320
313 319 322 320 318 316 316 314 313 311 310 308 309 311 311 312 311 311 310 310 310 310 310 309 310 317 318 315 316 316 316 317 317 317 318 317 317 319 319 315 315 315 316 317 316 320 316
312 314 320 322 319 317 316 315 313 311 310 308 309 311 311 312 311 310 310 310 310 309 309 311 315 319 319 316 316 317 317 316 317 317 316 316 318 320 317 316 316 316 316 316 316 316 319
308 311 315 321 321 318 316 315 313 311 310 308 310 311 312 311 311 310 310 310 309 310 312 314 316 322 320 318 317 317 314 315 319 318 317 319 320 318 317 317 317 318 315 316 316 317 317
308 307 310 316 321 319 316 316 314 312 310 308 310 311 312 311 311 310 310 314 317 319 316 318 316 319 317 317 316 316 315 318 319 320 320 320 321 319 318 317 318 319 319 317 318 318 320
306 307 307 310 318 320 317 316 314 312 310 308 310 312 312 311 311 309 311 315 316 320 321 317 317 316 316 316 318 317 316 318 318 318 321 321 320 320 319 319 319 318 319 321 319 318 322
305 306 306 307 316 320 318 316 315 313 311 309 311 312 312 311 310 310 313 313 319 318 326 319 318 317 316 317 318 317 318 319 318 318 321 321 320 320 321 320 321 321 322 322 321 320 322
304 305 305 307 317 319 320 316 315 313 311 309 311 312 311 311 311 313 313 312 313 315 323 316 317 317 316 319 318 316 317 319 320 320 321 322 319 320 322 322 322 322 321 321 321 322 322
303 305 305 305 308 317 319 316 315 313 311 309 311 312 311 311 315 313 317 315 319 320 318 316 317 316 317 318 317 318 318 319 318 320 320 322 321 321 321 321 320 323 320 321 321 322 323
304 304 306 306 305 307 316 317 315 313 311 309 311 312 311 311 313 316 321 325 323 327 321 317 317 317 318 318 317 318 320 319 319 321 321 321 320 321 321 320 321 322 323 324 324 324 324
304 303 304 305 304 304 311 317 316 313 311 309 311 312 311 314 314 323 318 323 325 323 317 317 317 317 317 318 318 319 320 320 320 323 324 322 322 320 321 323 322 323 323 321 323 325 323
303 303 303 304 303 303 306 314 316 313 310 309 311 312 312 314 315 322 322 325 322 317 318 317 317 317 317 319 319 320 322 322 321 321 323 322 323 320 320 322 322 323 322 321 318 322 323
303 302 302 303 303 302 305 314 316 313 310 310 312 311 313 314 313 319 323 326 320 320 319 317 317 318 319 319 319 321 322 322 322 322 321 323 322 320 319 321 322 323 323 322 326 322 326
301 300 301 302 302 303 305 313 316 312 309 311 314 314 315 315 313 316 325 322 320 321 319 318 317 318 320 320 319 320 322 321 321 320 322 323 323 320 319 320 320 323 321 323 323 323 318
301 300 300 301 303 304 307 311 316 312 309 311 314 317 321 316 319 322 326 320 318 323 321 318 317 319 320 321 320 319 321 321 320 320 321 322 322 322 320 321 321 322 323 321 321 323 318
298 299 300 300 303 304 309 313 316 311 309 312 316 319 323 321 323 326 323 319 320 322 323 320 319 319 319 321 322 320 321 321 320 320 323 320 324 326 323 318 318 320 322 321 319 318 322
299 300 300 300 302 304 306 312 314 310 310 313 318 324 318 317 328 325 319 319 322 320 321 322 321 321 322 323 324 323 324 320 319 320 323 320 323 325 323 320 320 320 321 320 318 319 320
300 300 301 301 302 304 304 308 313 309 311 315 319 326 325 320 320 322 320 319 321 321 322 321 323 323 324 325 324 325 325 320 318 319 312 317 322 323 324 321 321 321 320 319 318 320 317
299 301 301 300 304 303 303 307 313 309 311 314 321 321 322 327 323 319 319 319 319 323 322 322 323 324 324 326 325 326 324 319 319 316 320 321 323 320 318 316 316 318 318 319 319 318 319
300 300 301 301 304 304 304 308 313 309 311 313 321 322 320 325 321 318 317 320 319 322 323 323 324 324 324 326 324 326 324 322 323 320 322 319 323 319 320 317 316 317 317 316 319 318 318
300 301 301 303 305 302 304 307 312 309 310 317 320 315 322 316 319 318 318 319 319 324 322 321 324 325 325 324 323 323 320 320 320 323 322 322 322 320 319 314 314 321 318 317 316 317 318
301 301 302 305 305 304 306 309 310 309 311 319 322 318 323 321 319 317 317 320 322 323 325 321 321 325 319 317 318 319 319 318 317 316 317 319 319 317 320 312 326 313 312 313 316 316 316
301 300 305 305 304 307 308 311 308 310 312 316 321 319 321 323 319 317 318 323 323 322 324 323 320 318 317 317 323 323 324 324 320 315 315 314 316 317 327 315 314 312 310 310 313 313 315
302 304 307 306 306 308 311 308 308 311 312 313 321 314 321 322 320 316 321 323 325 326 324 319 314 313 313 319 324 329 328 324 322 320 314 313 314 321 317 332 333 314 313 314 314 316 314
304 306 307 307 310 310 308 308 311 312 312 315 321 315 322 326 317 320 320 323 323 324 326 318 316 317 314 323 334 330 326 315 320 320 320 321 320 326 321 327 318 312 310 314 316 314 314
307 307 310 309 307 307 308 311 313 313 313 317 319 316 324 324 321 321 319 321 321 324 327 319 320 319 320 329 331 324 329 317 317 315 318 321 324 325 318 327 325 311 314 319 317 316 313
308 307 307 307 307 310 312 314 315 313 316 319 320 317 319 323 321 316 316 316 318 318 322 319 324 321 322 326 322 319 321 314 321 324 314 320 319 320 318 318 314 312 316 315 314 315 315

GFSGBSN_925_thetae_045.txt.gz
Theta_e
318 323 324 320 318 317 316 316 314 312 311 312 310 308 309 311 311 311 311 311 311 311 310 310 310 308 316 320 318 320 315 316 315 315 318 319 318 317 317 317 318 318 320 319 324 324 324
314 316 322 323 320 318 317 316 315 313 311 312 311 308 310 311 311 312 311 311 311 311 310 310 309 309 320 318 316 318 320 319 318 316 318 318 319 318 320 320 319 319 321 323 324 325 324
310 314 316 321 323 320 318 316 316 314 312 311 311 308 310 311 311 312 311 311 310 311 310 310 308 314 319 317 317 320 320 319 319 319 320 319 319 320 321 322 318 318 322 321 322 325 325
309 310 314 315 321 322 320 318 316 315 313 311 311 308 310 311 312 311 311 310 310 310 310 309 309 317 320 317 317 318 319 319 320 320 319 320 320 320 322 318 316 318 317 321 320 323 323
309 308 309 313 316 322 322 319 317 316 314 312 310 308 310 311 312 311 311 310 310 310 309 310 317 320 320 317 317 318 319 319 319 319 319 318 319 321 321 317 317 318 317 319 320 321 321
309 308 308 308 313 318 321 321 318 316 314 312 310 309 310 312 312 311 310 310 313 309 313 316 317 322 322 319 318 319 318 317 320 321 321 321 322 323 321 318 318 318 318 319 320 320 320
308 308 308 307 309 313 320 321 319 316 315 313 310 309 311 312 312 311 310 315 319 321 318 319 319 318 319 319 318 318 317 318 321 321 321 322 322 320 320 319 319 319 317 318 318 317 318
303 306 306 306 307 310 314 320 320 317 316 313 311 309 311 312 311 311 312 317 319 322 325 318 317 317 317 317 319 319 317 318 320 321 321 322 322 321 319 318 318 318 320 318 319 318 320
302 303 306 305 306 307 309 317 321 317 316 313 311 309 311 312 311 311 314 315 320 320 328 321 318 318 318 318 319 319 319 319 320 320 321 324 322 321 320 319 319 320 320 323 321 320 319
305 305 305 304 306 306 308 314 320 318 316 314 311 309 311 311 312 315 316 315 316 318 328 320 318 318 317 319 319 318 318 319 320 319 319 323 323 321 319 320 320 322 322 321 321 323 322
305 305 303 304 304 305 307 317 318 319 316 314 311 309 312 311 318 316 321 317 320 326 328 317 317 318 318 319 318 318 318 319 319 319 319 322 321 320 320 322 321 324 322 322 321 321 322
304 305 303 304 304 304 305 314 319 319 316 314 311 310 312 312 313 318 320 326 324 332 328 317 318 318 319 319 318 318 318 318 320 319 321 323 323 323 323 322 321 323 323 323 323 322 325
304 304 303 304 304 305 305 305 317 318 316 313 311 310 312 315 317 319 320 328 330 328 318 317 318 319 319 318 318 317 318 318 319 319 321 322 322 323 322 323 323 323 323 328 326 324 324
303 303 303 305 304 305 306 304 310 317 316 313 310 310 312 315 317 323 324 331 329 321 320 318 318 318 319 318 318 318 318 318 318 320 320 322 324 322 322 324 324 323 322 323 321 322 322
303 302 303 304 304 304 305 304 305 316 316 312 310 312 315 316 317 321 326 333 327 320 318 318 318 318 318 318 318 318 319 319 319 320 320 324 322 322 321 322 322 324 322 324 324 329 324
302 302 302 303 303 303 304 303 304 313 315 312 311 316 316 317 317 321 327 328 324 320 319 318 319 318 319 319 318 318 319 320 321 322 323 322 323 322 321 322 322 323 323 323 322 323 320
299 301 302 303 302 303 303 302 304 312 315 312 313 319 317 318 318 324 329 326 323 320 322 319 319 318 318 319 319 318 319 322 322 323 324 321 321 324 322 321 320 324 323 321 322 323 323
295 301 300 301 301 301 302 302 304 311 314 310 316 321 319 319 318 323 327 324 320 320 324 321 320 319 320 320 320 319 318 321 323 323 322 322 322 323 323 322 321 322 322 322 323 321 321
295 301 300 299 299 300 300 303 304 310 313 311 319 323 322 319 321 329 324 324 321 319 322 322 319 319 320 321 321 320 320 324 322 324 322 324 321 322 324 323 322 322 321 320 321 321 321
295 300 299 298 299 300 300 303 307 309 313 313 320 326 324 325 318 325 325 324 321 321 322 322 320 319 321 320 321 322 322 323 322 322 313 319 320 321 324 322 323 324 322 322 321 324 320
295 299 297 298 299 300 300 302 306 310 313 313 320 322 322 326 324 325 324 322 321 320 322 323 322 322 322 322 322 324 324 324 323 318 320 323 324 322 321 321 321 321 320 320 322 321 323
297 298 300 300 299 300 300 303 306 310 312 312 323 322 321 322 320 325 323 323 320 319 323 324 322 321 323 324 324 324 325 325 325 324 325 323 325 323 323 321 321 321 320 319 319 319 318
297 299 300 299 300 301 302 302 304 308 309 311 317 322 323 323 325 325 325 322 319 320 325 325 323 321 324 325 327 327 325 324 324 326 326 326 325 324 323 318 318 322 320 319 318 318 319
299 299 299 299 300 300 303 303 302 305 309 313 318 322 324 328 327 324 321 321 320 321 325 324 325 325 325 323 323 323 322 322 322 323 324 326 325 324 323 317 328 316 314 315 316 317 317
299 299 299 299 300 301 304 302 301 303 307 313 320 324 324 331 324 321 320 320 320 323 325 326 323 324 323 324 325 325 326 325 321 318 318 320 322 322 329 318 317 316 313 314 314 315 315
298 300 299 300 300 301 304 303 303 307 309 310 318 323 324 328 327 319 319 319 324 326 327 322 321 319 320 326 329 327 326 322 325 324 317 316 318 322 320 329 330 318 315 315 315 316 314
300 299 301 301 302 303 304 303 303 305 309 309 316 323 323 322 321 320 320 323 320 324 326 323 322 321 320 331 334 331 327 322 325 327 323 325 324 328 325 329 323 317 314 315 317 318 315
299 301 301 301 301 304 304 304 306 307 309 308 315 322 324 325 323 323 319 320 323 323 329 324 324 324 325 330 336 330 332 324 322 320 322 324 328 326 327 325 327 314 315 317 320 315 316
301 300 300 305 304 304 306 306 308 310 308 310 315 322 323 325 323 322 321 320 322 324 324 323 324 325 325 327 331 331 327 320 328 325 319 323 322 324 321 321 317 314 314 316 315 315 316

GFSGBSN_925_thetae_048.txt.gz
Theta_e
312 315 319 323 324 322 319 318 316 316 315 313 311 312 309 308 310 311 311 311 311 311 311 311 310 309 313 322 321 319 318 316 316 314 318 319 318 317 317 317 318 320 320 321 321 328 326
310 311 312 318 322 323 321 319 318 316 316 314 312 311 310 308 310 311 312 311 311 310 311 310 310 308 319 321 317 319 321 321 319 315 317 318 318 318 318 320 318 320 321 323 324 324 324
309 309 309 313 317 321 323 322 319 318 316 315 313 311 310 308 310 311 312 311 311 310 311 310 309 313 318 318 318 319 321 320 320 320 319 319 318 319 320 321 320 322 322 322 323 325 325
307 307 310 309 314 316 320 323 321 319 317 316 313 311 310 309 311 311 312 311 310 310 310 309 309 316 320 318 317 317 319 321 321 320 320 320 321 320 321 322 317 320 321 322 321 323 325
305 306 309 309 309 313 316 321 322 320 318 316 314 312 310 309 311 312 311 311 310 310 309 309 315 320 321 319 318 318 318 319 320 320 320 320 320 321 322 321 320 320 318 319 321 321 323
305 304 308 309 308 309 313 316 321 322 319 317 315 312 310 309 311 312 311 310 311 311 313 315 317 320 321 319 318 318 319 319 320 322 321 321 321 323 322 320 320 320 318 319 320 321 321
305 304 306 309 309 308 308 313 319 321 320 317 316 313 310 309 311 312 311 317 320 322 317 319 320 318 319 320 319 319 319 318 320 322 323 322 323 321 321 320 319 320 320 320 320 320 319
305 305 305 307 307 307 307 309 314 319 321 318 316 313 310 309 312 312 311 318 320 322 325 323 318 318 318 319 319 319 319 318 320 322 321 322 325 322 320 320 320 319 321 321 318 318 318
306 305 305 304 305 307 306 307 310 317 320 319 316 313 310 310 312 311 315 315 317 319 325 325 323 315 317 319 320 319 319 319 319 321 320 322 324 324 323 322 319 320 323 324 323 320 318
305 305 305 303 304 306 305 306 307 312 319 319 316 313 309 311 312 316 317 317 316 317 327 324 320 317 318 319 320 319 319 319 319 320 324 323 322 323 324 320 320 324 324 322 323 324 320
304 305 305 304 304 306 305 305 306 312 316 319 316 313 309 311 317 320 322 319 320 324 336 322 319 318 319 319 319 319 319 319 320 320 322 326 323 324 323 321 322 324 324 324 321 321 322
303 303 305 305 304 304 304 304 305 312 315 319 316 312 309 312 313 316 320 324 320 333 330 318 317 318 319 318 318 318 318 319 319 320 321 322 323 324 324 322 321 324 324 323 323 325 327
302 302 305 305 305 303 302 303 304 309 317 319 316 312 310 315 318 316 316 325 331 329 320 320 318 319 319 319 319 317 318 318 319 321 320 323 320 322 322 321 322 321 322 328 333 334 330
301 302 302 305 305 303 302 303 304 306 316 318 315 312 310 313 317 320 325 330 328 322 324 318 318 319 319 319 318 318 317 317 317 319 319 325 325 322 321 321 326 324 323 332 331 335 330
299 301 302 304 305 304 303 303 305 305 314 317 313 311 313 313 316 321 327 332 325 324 322 321 318 319 319 319 318 318 317 318 318 318 320 322 325 323 323 321 324 324 324 324 323 332 336
297 299 301 304 304 304 304 303 305 305 309 315 312 313 313 315 315 320 328 329 324 322 321 319 319 318 319 319 318 319 318 319 318 318 322 324 328 325 324 321 321 321 321 325 323 325 324
298 298 301 302 304 303 304 304 304 304 307 314 313 314 314 317 318 321 327 327 324 323 322 321 319 318 318 319 319 319 318 318 319 322 322 322 324 325 322 322 318 324 323 320 319 326 330
297 298 300 300 304 303 303 303 304 303 307 313 313 316 317 320 321 318 324 323 320 324 322 321 321 319 319 319 319 318 318 320 321 321 322 321 322 327 323 322 321 321 322 322 335 325 327
297 297 298 299 303 302 302 303 304 303 308 311 314 320 321 320 320 321 319 323 322 323 323 322 323 320 320 320 321 320 319 325 322 322 322 323 324 326 323 322 323 322 320 320 322 326 326
297 296 297 297 300 302 302 303 303 303 307 312 314 322 322 324 320 317 320 322 324 323 321 321 322 320 320 321 321 322 321 324 323 323 316 323 323 322 325 321 322 324 323 320 322 333 326
296 296 296 295 296 302 302 301 302 303 305 312 317 320 322 324 325 321 323 322 322 323 322 322 322 321 320 321 321 321 321 326 323 318 321 323 321 319 319 320 320 322 322 321 320 322 325
296 296 296 296 296 301 301 300 301 303 304 312 318 321 323 322 322 322 320 326 323 323 321 322 323 321 320 322 321 321 323 327 324 324 324 324 325 324 325 323 321 321 320 319 319 319 319
295 297 297 296 300 300 299 299 301 304 308 311 313 317 322 321 323 322 323 325 325 323 322 320 323 323 323 324 325 327 326 326 324 326 326 326 329 330 329 321 319 321 321 319 318 319 319
295 297 296 300 299 299 299 300 301 304 306 311 314 319 325 326 323 321 321 324 325 323 324 323 324 324 326 326 325 325 324 325 325 325 326 328 330 332 331 318 325 318 316 315 315 315 315
296 296 297 299 300 300 301 300 302 304 308 310 312 319 325 326 321 320 322 324 325 323 324 325 326 326 326 327 329 328 328 323 323 321 322 324 328 329 331 324 319 317 315 315 316 316 316
296 296 298 299 298 300 301 300 302 303 306 308 311 312 323 328 325 319 323 324 325 325 328 326 324 326 327 333 335 331 332 324 324 322 318 318 325 329 325 331 327 321 316 315 315 318 315
298 298 298 299 300 300 300 300 302 302 303 303 307 309 317 325 322 321 324 325 324 328 329 326 323 324 324 337 329 336 332 322 327 329 323 326 327 327 327 329 327 318 316 315 319 324 317
299 300 299 300 300 300 300 301 303 303 302 302 305 307 313 326 325 324 322 323 324 328 326 326 326 326 334 333 337 337 334 330 326 323 325 326 331 325 331 326 326 315 314 319 321 318 317
300 300 300 300 300 301 301 301 304 303 303 304 307 310 313 318 327 323 322 323 323 326 327 326 327 327 330 332 334 338 326 321 331 331 320 326 325 330 326 327 320 316 317 317 317 317 317

GFSGBSN_925_thetae_051.txt.gz
Theta_e
310 311 313 316 318 321 324 323 319 318 317 315 315 312 311 310 308 309 310 311 311 311 310 310 310 309 309 318 322 313 319 317 316 315 315 316 317 316 314 313 313 315 316 319 327 327 327
309 309 310 312 314 318 321 323 322 319 318 316 315 314 312 310 308 309 310 311 311 311 310 310 310 308 317 320 314 318 321 319 318 313 316 316 316 316 316 316 318 319 320 320 322 324 323
306 306 306 309 310 312 317 320 322 322 319 318 316 315 313 310 309 309 311 311 311 310 310 310 309 311 317 316 310 315 317 320 320 315 314 317 318 317 317 320 319 319 319 320 322 323 324
306 305 305 307 310 310 312 316 320 321 321 319 317 315 313 310 308 309 311 312 311 310 310 310 309 314 319 312 317 318 317 318 321 320 319 320 320 319 320 319 319 319 319 320 322 325 325
306 306 305 304 308 309 309 313 316 320 322 321 318 316 314 310 308 309 311 312 311 310 311 309 312 315 322 320 320 317 317 317 319 320 320 320 319 320 320 320 319 318 318 318 319 325 326
306 305 305 304 306 309 308 310 313 317 321 322 319 316 314 311 308 310 311 311 312 311 314 312 315 317 318 319 319 317 317 318 319 320 320 320 318 319 319 317 319 320 319 318 317 319 323
306 306 305 305 304 309 309 308 310 314 319 321 320 317 315 311 308 310 312 312 318 318 315 319 318 317 317 318 319 319 319 318 318 320 321 320 321 320 320 319 318 318 319 317 317 318 318
306 306 306 304 304 307 309 309 307 310 315 320 321 317 315 311 309 311 311 314 318 317 322 320 319 320 317 317 318 318 318 317 317 320 320 320 324 322 322 322 320 319 319 321 321 318 316
305 306 306 306 304 305 308 307 306 307 311 318 321 317 315 311 309 311 312 313 311 315 322 323 322 323 319 316 318 318 317 316 317 320 320 321 322 322 323 323 324 324 323 321 322 322 318
303 304 306 305 305 305 304 306 307 306 309 314 320 318 315 310 310 314 317 318 316 315 325 323 322 323 319 315 319 318 318 316 318 320 322 322 322 321 322 323 323 324 322 323 321 320 320
303 302 303 305 305 305 303 303 306 305 306 311 319 317 314 310 313 317 320 324 317 319 330 325 322 318 315 318 319 318 318 317 317 321 322 321 322 323 324 323 323 323 322 322 323 323 322
302 302 302 303 305 305 304 303 305 305 305 311 316 317 314 310 310 313 318 322 323 331 330 323 319 317 318 318 318 317 317 317 317 320 320 320 320 322 323 324 321 321 321 324 324 325 324
300 302 303 303 303 304 304 303 305 304 304 310 315 318 313 312 315 319 315 320 329 332 321 321 317 317 318 318 318 317 317 316 316 318 320 321 320 321 322 322 322 321 322 326 326 325 327
298 299 301 302 303 304 304 304 302 303 304 306 315 317 314 311 314 316 321 327 331 323 323 320 318 318 318 318 318 318 316 316 315 316 318 322 322 322 322 322 324 323 324 324 328 330 327
299 298 299 301 302 303 306 304 302 302 303 307 316 314 312 312 309 314 324 328 323 324 320 321 317 319 318 318 319 318 316 315 315 315 316 323 326 324 323 322 321 324 326 324 324 325 321
299 298 298 299 302 302 304 304 303 302 304 307 313 312 312 312 309 314 325 323 325 322 322 323 321 318 319 318 319 317 317 317 317 316 317 324 326 324 324 323 321 322 321 323 321 320 321
297 297 297 298 301 301 302 306 303 302 305 307 313 315 314 313 316 320 321 322 322 322 322 323 321 319 318 319 318 317 319 318 317 321 321 322 320 324 324 325 323 321 321 320 319 323 322
296 297 296 297 296 301 301 306 302 303 305 309 314 317 314 315 318 316 319 319 319 322 322 324 321 321 321 318 320 318 319 318 318 321 322 322 322 326 325 322 321 320 321 322 318 321 321
295 295 295 295 296 299 300 305 303 304 305 311 315 316 317 316 314 317 316 317 319 321 321 323 322 322 321 321 321 319 318 324 320 321 321 323 321 319 321 320 321 321 320 319 320 320 321
295 295 296 295 296 299 300 305 303 304 305 312 314 317 319 318 312 313 317 316 318 319 322 322 323 321 322 320 320 323 325 324 323 321 316 322 323 321 320 318 319 321 321 320 319 318 320
295 295 296 295 299 300 299 304 304 303 304 312 314 317 320 322 320 317 315 316 318 322 322 322 323 322 322 321 320 321 325 324 323 318 321 320 320 320 318 319 320 320 321 320 320 320 319
295 295 296 296 298 298 299 303 303 303 304 310 315 316 319 321 320 321 318 316 319 320 323 323 323 322 320 320 320 321 324 325 323 322 322 321 322 321 323 322 319 318 318 319 317 318 317
295 296 296 296 298 297 296 297 303 304 304 306 311 314 318 318 321 321 319 318 317 320 321 321 321 322 321 320 322 322 323 323 322 323 321 323 322 319 324 315 316 314 317 317 317 317 317
296 297 296 296 297 296 295 296 303 303 304 307 311 315 320 319 321 321 317 318 319 319 322 322 319 321 322 321 321 321 320 321 324 323 322 324 323 316 317 313 313 317 315 313 314 314 313
295 296 296 297 297 297 296 298 303 302 303 304 309 315 318 313 320 320 318 318 317 319 323 322 323 324 321 324 323 323 319 317 320 322 322 324 319 318 314 315 317 316 314 315 314 314 313
296 296 296 297 297 297 298 301 302 301 302 304 305 311 315 322 320 320 318 318 319 321 323 325 324 322 323 325 318 322 322 322 323 319 319 319 319 313 315 316 312 316 314 314 313 314 314
296 296 295 297 298 299 300 301 301 301 301 305 305 307 310 318 321 319 318 317 319 324 326 324 324 324 323 313 321 318 319 322 321 320 316 313 311 312 309 311 316 319 314 314 311 313 315
297 296 295 297 300 301 301 300 300 301 301 304 306 307 309 315 317 321 317 317 319 322 320 321 321 324 324 320 322 316 315 317 320 324 319 317 317 312 316 320 319 314 314 314 316 314 314
297 297 297 299 299 299 299 300 301 302 302 305 304 305 305 310 315 314 321 323 320 320 319 319 321 323 323 323 320 316 322 314 317 317 320 320 321 318 318 317 317 315 316 315 314 314 314

GFSGBSN_925_thetae_054.txt.gz
Theta_e
309 309 310 312 314 318 318 320 323 322 319 318 316 315 314 312 310 308 307 309 310 311 311 310 310 309 308 315 318 314 314 317 316 315 315 314 316 316 315 313 313 313 314 322 325 326 325
308 307 308 309 311 313 316 318 321 322 322 319 318 316 315 313 310 308 307 309 311 311 310 310 310 309 316 317 312 318 320 316 316 315 314 314 316 315 314 316 316 317 325 326 325 325 327
307 306 305 305 306 309 311 315 317 320 322 321 319 317 315 314 311 308 307 309 311 311 310 310 309 310 315 310 309 314 315 316 319 314 314 315 315 317 316 319 318 318 317 321 322 322 322
308 307 306 305 304 306 309 311 315 317 319 320 321 318 316 315 312 309 307 309 311 311 310 310 309 312 314 310 315 319 317 317 317 319 316 318 318 318 319 318 318 316 315 318 324 324 324
307 307 307 306 305 304 307 309 310 314 317 319 321 320 317 315 313 309 308 310 311 311 310 311 311 313 319 316 319 315 316 317 317 317 318 318 318 318 317 318 317 317 318 317 323 323 324
306 307 307 306 305 304 304 309 309 311 314 319 320 321 318 316 313 310 308 310 311 314 314 312 313 312 314 317 318 319 316 316 316 318 319 319 315 318 317 316 319 319 318 318 318 324 324
305 306 307 306 306 304 303 308 308 309 312 316 320 321 319 316 313 309 309 311 315 318 314 317 313 314 313 316 317 317 318 316 316 318 320 319 320 320 320 320 322 319 319 317 317 318 323
304 304 305 307 306 305 304 305 309 308 308 312 318 320 320 316 313 309 310 311 314 314 316 317 318 317 316 318 317 315 318 317 315 319 319 318 322 321 321 322 322 322 321 319 318 317 322
303 304 304 305 306 306 305 303 309 308 307 309 316 319 319 316 313 308 310 312 313 312 318 321 320 321 320 321 318 316 316 315 316 319 319 318 320 321 322 322 323 322 322 321 320 319 315
301 304 303 304 305 306 305 304 306 308 306 307 311 318 319 315 309 311 315 318 319 314 321 322 323 322 321 317 314 316 317 316 316 319 319 320 320 320 321 322 321 322 321 321 321 317 316
303 300 302 302 303 306 306 305 304 306 308 306 310 317 318 314 311 313 319 317 318 318 311 319 321 320 317 314 317 317 317 316 315 320 318 318 321 322 321 321 321 322 321 322 321 320 320
302 302 301 303 302 303 305 305 305 304 306 305 307 316 317 313 311 309 313 315 320 327 322 324 320 317 314 314 317 316 316 315 316 319 319 318 319 320 320 322 321 320 320 322 321 322 323
299 302 301 300 303 302 303 305 305 304 304 305 306 314 316 313 310 313 317 319 325 327 321 322 317 315 316 317 317 317 316 315 314 317 319 320 319 320 321 320 319 320 319 320 321 322 323
298 299 301 301 300 302 302 304 304 304 303 305 305 313 316 315 311 314 319 324 325 321 323 321 315 315 316 316 316 316 315 314 314 316 318 320 320 321 321 321 322 323 320 320 323 325 322
298 298 300 300 299 302 302 303 304 304 304 304 305 311 314 316 314 310 320 325 320 323 319 319 316 317 316 317 317 317 315 314 314 313 315 321 323 322 322 321 320 322 323 320 322 323 320
297 298 300 300 300 299 301 302 303 304 303 303 308 313 313 315 314 311 322 319 322 322 321 322 320 317 317 317 317 316 316 315 314 314 313 320 323 322 323 321 320 319 320 323 321 319 320
297 298 299 299 299 299 298 301 302 304 304 303 309 315 314 314 312 315 320 318 318 318 320 324 323 320 317 317 317 316 317 316 315 316 316 320 319 320 323 322 320 319 319 319 318 318 320
297 299 299 298 299 299 299 300 302 305 304 304 310 315 314 313 314 313 317 317 315 319 319 322 323 323 319 317 317 317 317 316 317 319 319 319 320 321 321 321 321 321 320 320 317 317 318
297 298 298 298 298 298 298 300 301 305 303 305 312 314 312 314 313 312 315 317 317 316 319 321 323 321 320 319 319 317 317 321 320 320 319 319 320 322 322 320 320 322 318 318 319 315 318
297 298 297 298 296 296 298 297 301 303 304 306 314 315 315 314 313 311 313 317 318 315 316 318 321 321 321 320 318 319 322 323 321 320 317 319 320 318 321 319 317 320 320 318 317 315 317
297 297 297 297 297 297 297 297 299 301 304 305 313 313 313 317 315 313 312 314 316 317 315 319 321 321 322 321 319 320 324 322 322 317 320 318 319 319 318 318 320 319 319 319 319 318 318
297 297 297 296 296 295 295 297 296 300 304 305 313 312 315 316 315 314 311 313 315 315 316 315 320 322 322 320 318 319 323 322 321 321 319 319 318 318 320 318 317 318 317 316 317 317 317
297 296 296 296 296 296 296 297 297 300 304 304 308 311 315 315 316 317 316 313 314 314 315 315 319 321 322 321 318 316 319 321 320 319 319 319 319 315 319 313 315 315 316 316 316 316 316
296 296 296 295 296 296 296 295 298 299 304 305 306 311 316 315 319 318 317 317 315 315 314 316 316 321 319 319 318 317 317 320 321 321 319 319 318 311 314 311 315 317 315 315 313 312 312
296 296 296 296 296 296 295 298 300 298 304 304 307 311 314 314 318 320 318 317 317 315 317 317 319 320 318 320 320 319 316 318 321 318 321 321 315 315 314 314 316 316 313 311 312 314 312
296 296 296 296 296 297 296 297 297 297 300 304 305 306 314 313 317 318 319 316 317 317 315 320 323 320 322 321 316 320 320 320 323 321 318 316 314 315 313 314 313 314 313 311 311 313 313
296 296 296 296 297 297 296 295 295 297 303 304 304 304 308 317 315 317 319 317 315 315 318 322 322 323 321 312 316 316 318 319 319 318 313 312 311 312 305 309 310 312 313 312 310 310 313
296 297 297 296 297 297 296 296 297 300 304 304 303 304 305 313 314 317 316 314 315 315 316 319 320 319 317 317 320 320 314 316 317 318 316 315 314 310 311 311 315 315 314 312 310 312 312
296 296 297 296 296 297 297 297 298 303 303 303 303 303 306 307 312 310 312 313 314 315 317 316 319 320 320 319 321 317 318 312 315 319 318 317 314 314 315 314 314 314 314 312 312 312 313

GFSGBSN_925_thetae_057.txt.gz
Theta_e
309 309 309 309 311 313 315 318 319 320 322 322 319 318 316 314 314 311 309 308 308 310 311 310 309 309 309 312 311 310 318 318 316 315 313 312 315 315 315 313 311 311 315 316 324 323 324
309 308 308 307 307 309 310 313 316 318 320 322 321 319 318 315 314 313 310 308 308 310 311 310 309 309 314 311 311 319 319 316 315 314 313 313 315 314 314 314 316 322 324 324 324 325 326
308 308 308 307 306 304 305 309 312 315 318 321 322 321 319 317 315 314 311 308 308 310 311 310 310 309 314 308 310 315 314 315 316 315 312 314 315 316 317 317 317 319 321 321 323 324 325
307 308 308 308 308 306 305 304 309 311 315 318 319 320 321 318 316 314 312 308 307 309 311 310 310 311 311 309 313 316 316 317 317 317 316 315 316 316 317 316 316 317 317 323 323 323 322
306 306 307 308 308 307 306 304 307 309 311 314 317 319 321 320 317 315 312 307 308 310 311 310 310 312 316 312 314 317 317 317 316 316 316 317 316 316 316 319 314 315 316 320 321 322 323
305 305 305 306 307 307 307 305 303 308 309 311 315 318 320 321 318 315 312 307 310 314 313 312 313 310 309 315 317 317 318 316 316 316 317 317 314 316 315 314 317 318 317 318 316 321 323
303 304 305 305 306 307 307 306 304 305 308 310 313 317 320 320 317 315 310 309 312 316 314 315 311 308 311 315 319 316 316 315 316 317 319 318 318 319 318 317 321 321 321 319 316 315 321
306 303 304 304 304 306 307 307 305 303 308 309 311 316 319 320 317 314 310 310 310 312 314 314 315 313 315 316 319 318 316 315 315 316 318 318 321 319 319 320 321 321 322 321 317 316 320
302 305 303 303 303 304 306 307 306 303 309 309 308 312 317 319 316 313 309 310 313 315 313 316 317 318 318 318 320 320 315 314 315 315 317 317 318 320 321 320 321 320 322 321 320 317 318
299 301 305 303 302 303 304 306 306 305 305 308 307 310 317 318 314 310 313 316 315 316 315 316 322 320 319 318 315 316 315 315 316 315 317 318 318 319 320 320 320 320 319 321 321 316 315
299 299 300 304 302 303 303 305 306 305 304 308 307 308 316 317 310 313 317 314 315 315 309 311 321 318 318 314 314 314 315 314 317 319 317 318 320 320 320 318 319 319 320 321 321 320 319
298 299 299 300 304 301 303 303 305 305 305 305 308 306 313 315 314 312 311 314 318 320 314 318 319 319 315 313 314 315 315 315 314 318 318 316 318 318 317 319 320 320 321 319 318 319 321
299 298 299 299 302 303 301 302 303 305 305 304 306 306 310 315 312 313 312 317 324 323 314 321 319 315 315 313 314 316 314 314 315 317 319 319 319 319 321 320 318 318 317 318 320 320 322
300 299 299 299 299 303 302 302 302 304 305 305 303 306 308 314 314 313 317 324 323 318 320 321 315 314 314 315 315 315 313 313 312 314 315 318 318 319 319 320 320 322 317 318 321 322 319
301 300 299 299 299 302 302 300 301 302 304 305 303 306 307 313 315 312 320 324 318 319 320 315 315 314 315 316 315 315 313 313 312 312 314 319 319 321 322 320 319 321 322 318 320 319 320
302 300 299 299 299 300 302 302 300 301 304 304 306 306 308 313 315 312 319 321 319 319 320 321 315 315 315 315 316 315 314 314 313 312 312 316 319 321 321 321 320 319 319 321 319 320 321
303 301 300 299 299 300 300 301 301 301 303 304 306 307 310 313 313 312 318 317 318 317 318 323 323 320 316 315 315 315 315 315 313 313 313 317 316 318 321 320 319 319 318 317 318 315 319
303 302 300 299 298 300 300 300 301 302 302 304 304 309 313 313 315 311 315 316 315 316 315 319 321 323 321 316 316 316 317 316 314 315 316 317 316 317 319 319 320 317 318 317 317 318 316
304 302 301 299 298 299 301 301 301 300 303 305 305 310 312 313 318 313 313 315 316 316 317 317 321 321 320 317 316 316 316 316 317 316 318 318 317 318 318 318 319 321 319 319 316 313 317
304 303 301 299 298 298 299 300 300 299 300 304 306 312 313 314 314 314 313 315 317 316 316 316 317 319 321 320 318 317 317 321 319 317 317 317 318 318 320 318 318 321 319 316 316 315 316
304 302 301 299 299 299 297 299 299 300 299 303 306 309 311 315 315 315 312 314 316 317 315 314 315 317 319 321 319 319 323 322 320 316 318 317 319 317 316 316 317 317 318 317 318 316 317
304 302 300 299 299 299 299 299 299 299 300 303 306 312 311 311 313 316 312 313 316 316 315 315 314 319 316 319 319 318 322 320 320 320 318 316 316 316 319 317 317 318 317 316 316 316 316
304 301 300 298 299 299 299 299 298 299 300 303 302 306 311 312 312 314 315 313 313 314 315 314 314 314 313 319 319 317 316 318 318 318 317 317 316 314 317 313 315 315 314 315 315 314 314
303 301 299 298 299 299 298 297 297 298 298 300 302 308 314 312 314 313 313 313 313 313 314 314 313 314 315 317 316 316 316 318 319 318 317 316 314 310 312 311 314 315 314 313 313 312 310
301 300 299 298 298 298 297 297 297 296 296 297 303 306 313 310 313 315 313 314 312 312 314 313 313 311 316 320 319 319 314 318 319 318 320 317 312 312 314 315 314 317 311 311 312 313 312
300 299 298 298 298 298 298 296 295 297 296 297 299 305 307 313 314 314 313 314 315 313 313 313 316 318 319 318 314 320 321 322 323 320 316 314 312 314 308 314 317 316 313 310 310 312 312
299 298 298 298 297 297 297 297 297 298 296 297 301 306 306 312 313 315 316 316 314 314 315 313 320 323 318 310 315 316 318 319 320 318 315 313 311 315 305 310 313 311 312 309 311 311 310
298 297 297 297 296 296 296 297 297 298 297 297 301 304 305 310 312 314 314 314 314 314 314 315 320 318 314 316 318 315 312 316 315 316 315 317 316 310 308 306 317 311 312 310 308 311 311
297 297 297 296 296 296 296 297 297 298 299 297 302 304 304 306 310 308 310 311 312 314 314 314 316 318 317 317 315 312 315 308 313 317 316 317 314 315 314 314 312 313 311 311 310 311 311

GFSGBSN_925_thetae_060.txt.gz
Theta_e
308 309 309 308 308 308 310 311 314 316 317 319 321 322 319 318 316 314 314 311 308 307 308 310 310 309 309 308 308 309 316 315 315 315 313 312 314 314 315 313 311 310 317 321 324 323 322
307 307 308 308 308 307 307 308 309 311 315 316 318 321 322 319 318 316 314 313 309 307 308 310 311 309 313 308 309 317 315 314 315 314 313 312 314 313 314 314 316 322 321 324 322 324 325
306 306 307 307 308 308 307 306 304 306 310 314 316 320 320 321 319 318 315 314 311 307 307 309 310 309 312 307 309 313 316 314 315 315 311 313 314 315 316 316 316 319 323 321 323 325 324
305 306 306 306 307 308 308 307 306 303 307 310 315 317 319 319 321 319 316 314 312 307 307 309 310 310 309 308 310 310 311 315 316 316 316 315 314 314 316 315 314 320 315 321 321 322 320
307 305 305 306 306 306 307 307 307 306 304 309 311 314 317 318 320 320 317 315 311 307 311 311 310 311 312 311 311 316 316 317 316 315 315 314 315 315 315 316 313 313 316 319 318 322 320
305 307 304 305 305 305 306 307 307 307 304 305 308 311 314 317 319 319 318 314 309 314 312 311 312 313 308 314 314 317 317 317 315 315 316 316 313 315 313 312 316 318 317 317 317 319 322
302 304 306 305 304 305 305 306 307 307 306 302 307 310 313 317 318 319 317 311 308 313 314 314 313 310 307 315 317 315 315 314 316 316 318 317 317 318 316 314 316 319 319 319 318 317 318
299 301 303 304 306 304 304 305 306 307 307 303 307 308 311 316 318 318 315 308 309 311 314 311 313 313 313 315 317 316 314 314 314 314 317 316 319 318 317 319 319 320 321 320 318 316 316
300 299 300 302 304 305 303 304 305 306 306 305 308 308 309 314 318 317 314 310 311 314 314 312 314 314 315 316 317 317 313 312 314 314 317 317 317 318 319 320 320 319 320 319 320 317 317
301 301 300 300 301 304 305 303 304 305 306 306 305 308 308 313 316 314 310 312 314 314 312 312 318 317 318 317 317 318 314 314 315 314 314 316 316 318 319 319 318 318 318 319 320 318 317
302 301 300 299 300 301 303 304 303 304 305 306 304 308 307 311 310 311 314 309 314 313 308 310 320 316 317 315 313 313 314 313 315 316 316 316 319 319 319 318 318 318 318 319 320 319 318
303 302 301 300 299 300 300 305 302 303 304 306 305 306 307 310 313 315 314 313 315 317 314 313 319 319 316 312 314 312 314 313 313 318 317 315 316 317 317 318 318 319 320 316 316 317 320
303 303 302 301 300 299 300 300 304 302 303 305 305 304 307 311 314 315 315 314 326 320 313 317 320 317 314 313 312 314 313 314 314 316 317 318 318 318 319 319 318 317 316 317 318 319 320
303 303 303 302 301 299 300 300 304 301 302 303 305 304 307 307 314 312 315 321 323 317 318 318 315 315 315 312 312 314 312 313 311 313 314 317 316 317 317 318 318 320 317 318 319 320 318
303 303 303 302 301 300 299 300 302 303 300 302 305 305 305 306 310 314 317 323 317 317 317 315 314 313 313 314 312 314 312 312 311 312 315 316 316 319 321 319 318 320 319 315 318 317 319
303 304 304 303 302 300 299 300 300 303 301 302 305 305 304 306 309 311 315 319 319 316 319 320 316 314 313 313 314 313 312 312 312 311 312 314 316 319 321 320 319 318 317 319 316 322 321
303 303 304 304 302 301 299 300 299 303 301 301 305 305 304 304 312 315 316 316 319 317 317 321 323 319 314 314 314 313 314 314 312 312 312 315 313 315 320 320 319 318 319 316 316 314 318
304 304 303 304 302 301 300 299 300 302 301 301 305 304 306 307 314 316 318 313 314 317 316 316 318 321 318 314 314 314 315 315 312 312 314 315 313 313 317 318 316 315 318 316 317 317 315
304 304 304 304 303 301 300 299 300 302 301 301 305 304 310 311 313 316 316 313 314 315 316 315 318 319 320 316 315 314 314 314 312 313 315 316 314 314 314 315 318 321 318 316 314 312 316
304 304 304 304 303 302 300 299 300 299 300 301 304 304 309 310 309 311 315 315 314 314 315 315 315 317 320 319 315 315 316 318 316 314 315 315 316 314 315 314 316 321 318 317 317 315 316
302 304 304 304 304 302 300 300 300 300 301 302 304 303 309 312 310 311 313 314 314 315 314 314 315 316 319 320 318 317 320 321 319 317 316 315 316 315 315 315 315 316 316 314 315 315 316
302 300 305 304 303 302 300 300 300 300 301 303 303 305 309 309 309 311 315 314 314 314 315 315 315 314 316 317 317 318 322 320 319 316 316 314 316 315 317 316 317 319 316 315 315 315 314
302 301 301 304 303 301 300 300 300 301 300 299 300 304 308 310 312 311 313 313 313 313 314 313 314 314 315 315 314 317 317 317 317 318 316 315 314 313 317 313 315 315 314 315 315 313 314
302 302 300 304 303 301 300 299 299 301 300 299 300 303 309 309 312 310 310 312 312 313 314 314 314 313 312 312 315 316 315 316 316 317 314 314 313 310 312 310 314 315 313 313 314 312 310
302 302 300 304 302 301 300 299 300 300 301 299 301 303 309 308 310 312 310 312 311 311 313 314 313 312 312 317 318 318 314 317 318 317 318 314 311 312 314 314 313 315 312 312 312 311 309
302 301 303 302 301 300 300 299 299 300 301 299 299 298 305 310 310 310 311 311 312 312 311 312 311 312 316 314 315 319 320 320 322 319 314 312 310 313 309 314 315 313 313 308 309 311 309
301 301 303 301 300 300 299 299 299 300 300 299 299 298 301 307 311 311 311 311 311 310 310 310 314 317 314 306 310 314 318 318 320 320 318 313 310 312 305 311 313 312 311 308 312 313 308
302 302 301 300 300 299 300 300 299 299 299 298 298 299 301 306 310 311 312 311 311 311 310 311 318 315 310 313 314 312 310 316 317 318 318 320 318 312 307 309 319 309 310 311 309 309 309
301 300 300 300 300 299 299 298 299 299 298 296 297 298 301 306 308 307 308 311 311 310 311 312 312 315 314 316 311 309 312 309 315 318 315 319 317 317 316 316 312 309 310 309 307 309 310

GFSGBSN_925_thetae_063.txt.gz
Theta_e
307 307 307 307 308 308 308 308 307 310 312 315 316 317 319 321 321 319 318 316 314 312 309 307 309 310 309 309 309 309 316 315 313 313 312 312 314 315 317 315 313 311 316 323 322 325 324
306 306 306 306 307 307 308 308 307 305 304 309 313 315 317 320 319 321 319 318 315 314 311 308 308 310 311 309 308 314 314 314 314 314 313 312 315 314 316 315 317 322 323 324 324 325 325
308 307 306 306 306 306 307 307 307 307 306 303 308 312 315 316 320 320 320 319 317 315 312 308 308 310 312 310 308 310 318 314 314 314 312 312 313 315 316 317 321 320 325 322 324 326 324
305 306 307 306 306 306 306 306 307 307 307 306 304 309 312 315 317 317 318 320 319 315 313 308 310 310 310 309 308 309 310 312 314 316 315 314 313 315 317 316 314 322 317 321 322 324 322
302 303 305 306 306 305 306 305 306 307 307 307 304 306 309 313 315 317 317 319 319 315 310 312 310 310 311 310 309 313 312 315 315 315 315 313 314 316 316 319 317 316 320 320 319 323 322
301 302 302 303 306 306 305 305 305 306 307 306 306 303 307 310 314 317 319 318 318 310 312 311 312 312 311 312 313 316 317 316 315 315 317 316 316 318 317 318 321 320 318 318 320 320 324
302 302 302 302 303 306 307 304 305 305 306 306 306 303 307 310 314 318 318 317 307 312 313 316 313 312 308 314 316 316 315 315 315 317 320 318 320 322 319 317 317 317 319 320 319 319 319
303 302 302 302 301 302 305 307 304 304 305 306 306 305 307 309 313 317 317 311 307 311 315 313 314 312 312 314 317 315 314 315 315 316 318 319 322 319 316 317 320 320 321 321 320 318 319
303 303 302 302 302 301 302 305 306 304 304 305 306 305 308 308 310 315 316 315 310 310 317 316 313 313 314 314 316 315 313 313 315 315 318 320 319 317 319 321 321 321 321 320 320 319 317
303 303 303 302 302 301 301 302 304 305 303 304 306 306 307 308 313 315 313 313 312 313 316 312 314 316 316 316 316 315 313 314 314 317 316 318 315 317 320 321 320 322 318 319 320 321 322
301 302 303 303 302 302 301 301 300 303 303 303 305 306 305 307 311 310 312 313 313 311 312 310 319 315 316 315 314 317 313 313 317 315 318 318 319 319 320 320 319 321 318 320 321 322 320
302 302 302 303 303 302 301 301 301 300 304 302 304 306 304 307 309 312 313 315 315 318 318 312 318 319 319 316 313 312 314 313 314 318 317 315 316 318 319 317 318 318 321 317 318 320 325
302 302 302 302 303 303 302 301 300 300 302 302 303 305 304 307 312 313 314 313 323 323 313 314 321 318 316 314 312 313 315 316 318 320 321 318 319 318 317 320 318 318 319 322 324 325 325
303 303 303 303 303 303 302 301 300 299 299 303 302 305 305 306 308 311 314 318 322 318 317 317 316 317 315 312 313 313 314 316 313 315 316 319 319 318 318 319 321 320 320 326 321 322 322
303 303 303 303 303 303 303 302 300 301 299 304 302 303 306 304 306 311 314 320 318 317 316 316 314 319 317 312 313 314 315 316 315 315 318 319 317 317 319 318 319 321 322 318 321 319 324
303 304 303 303 304 304 303 303 301 300 300 302 302 303 305 304 305 309 316 317 319 315 318 320 319 316 320 314 314 316 314 313 314 314 316 318 318 319 320 320 318 320 318 324 321 324 323
303 304 304 304 304 304 304 303 301 300 299 303 302 304 304 304 305 311 316 314 316 316 317 319 323 322 314 314 315 315 315 313 314 313 313 315 317 316 320 322 322 321 322 318 319 319 323
304 304 304 304 304 303 304 303 302 300 299 303 302 304 303 304 307 310 313 314 313 315 315 316 317 320 319 314 315 315 316 316 312 313 315 317 318 319 319 317 316 318 321 320 326 322 319
302 302 305 304 304 303 304 303 302 300 300 302 302 304 303 304 308 309 311 314 314 314 316 316 317 318 320 317 315 315 315 314 311 314 317 317 317 318 317 317 319 321 318 317 316 317 320
302 303 303 305 304 304 304 303 302 300 301 302 302 304 306 306 305 308 310 314 316 313 315 315 315 316 319 319 317 316 316 315 313 314 315 316 317 318 319 317 319 322 320 318 320 322 323
302 303 302 305 305 304 304 303 301 300 301 301 302 304 306 307 305 306 309 311 313 314 314 314 316 316 319 320 318 317 317 320 317 317 316 319 320 316 315 313 317 319 320 319 320 321 323
302 302 302 302 305 304 303 302 301 301 301 301 302 305 304 310 306 306 309 312 313 314 315 315 315 316 316 318 318 320 319 320 319 316 318 315 319 317 317 316 315 317 316 317 318 317 316
302 302 302 302 305 305 304 302 301 301 301 301 301 302 304 307 308 307 308 310 313 313 314 314 314 315 316 316 315 315 317 318 318 319 318 317 318 318 320 315 316 319 318 317 317 316 318
302 302 303 302 302 305 304 302 301 301 300 300 301 302 306 307 309 308 306 310 311 313 313 313 314 314 313 313 314 314 315 316 317 316 316 317 317 315 319 313 323 319 313 315 317 316 314
301 302 302 302 302 302 304 302 301 301 300 300 300 302 306 306 309 309 308 308 312 312 313 314 313 313 311 314 318 317 317 318 318 317 316 315 314 316 322 320 317 314 314 315 317 317 314
301 302 302 302 301 304 303 302 301 301 300 300 299 301 304 306 308 309 309 308 312 312 312 313 312 314 314 314 314 319 321 320 322 320 313 312 313 320 314 320 323 319 313 310 312 317 313
302 302 302 302 300 304 302 301 301 301 301 299 299 301 303 306 307 308 310 309 310 310 312 311 312 314 313 309 314 317 318 318 324 322 320 317 315 319 314 322 319 314 311 310 319 319 312
301 302 302 301 300 303 302 301 300 300 300 299 299 301 301 305 306 309 310 310 310 310 311 310 313 313 312 313 314 315 316 317 319 319 319 321 321 319 314 318 323 312 309 317 318 310 311
301 302 302 301 303 302 301 300 300 300 301 299 299 299 300 302 307 305 306 308 309 309 310 313 313 314 313 315 313 312 316 312 319 320 315 322 320 321 319 323 316 311 313 310 309 313 311

GFSGBSN_925_thetae_066.txt.gz
Theta_e
308 309 307 307 306 307 307 307 308 307 307 305 310 312 314 315 317 320 319 321 320 318 316 314 310 307 312 314 314 310 314 316 316 314 315 315 316 319 319 320 319 319 322 324 322 325 327
305 306 308 308 307 306 306 307 307 307 307 307 305 304 310 313 315 317 318 319 320 320 318 315 313 308 314 313 309 313 315 315 315 315 315 316 319 319 320 321 321 325 325 325 325 327 327
303 304 305 306 307 306 306 306 306 306 307 307 307 304 306 310 313 315 318 318 318 319 319 316 312 311 313 314 310 314 314 316 316 316 316 316 317 320 321 321 324 325 327 328 328 328 326
303 303 303 303 305 306 306 306 306 306 306 306 307 306 303 307 311 313 315 316 316 318 319 315 310 313 313 311 311 310 313 317 315 316 316 316 316 320 321 320 321 323 323 322 325 327 326
303 303 303 303 302 303 304 307 305 305 305 306 306 306 306 304 309 312 315 316 317 318 317 311 313 314 314 312 313 312 312 315 316 317 317 315 318 321 321 321 321 321 321 321 321 324 324
304 304 304 303 302 302 302 305 306 304 305 305 306 306 306 303 308 312 314 316 317 315 313 313 314 316 314 314 314 316 316 314 318 318 318 319 321 322 322 321 319 320 320 320 321 323 324
305 305 304 303 303 303 302 304 305 306 304 305 305 306 306 304 309 312 316 317 316 315 315 316 316 315 314 315 316 317 318 318 318 320 321 322 322 323 320 320 320 320 320 321 321 322 322
302 302 303 303 303 303 303 303 304 304 305 304 304 306 306 305 308 310 315 317 316 313 315 314 315 316 315 315 318 319 316 318 319 321 321 323 323 322 321 321 321 321 321 322 322 321 322
301 301 301 303 304 303 304 303 302 302 303 304 304 305 306 306 308 310 316 316 313 313 316 316 316 315 314 315 316 318 317 317 319 320 320 322 322 321 322 322 322 322 322 322 322 322 323
300 301 301 301 302 303 303 302 302 302 301 305 303 304 306 305 309 314 316 314 313 314 321 315 315 316 315 316 317 316 317 317 318 319 319 321 321 320 321 321 322 322 322 321 322 323 323
300 300 301 301 302 302 302 302 302 301 301 302 304 303 305 304 310 314 314 316 314 316 316 313 316 315 316 314 315 316 317 317 319 319 320 321 320 320 321 321 321 322 322 322 323 325 324
301 301 302 302 302 303 303 302 302 301 300 301 301 303 304 305 309 312 313 315 315 322 319 313 319 319 318 316 316 317 317 317 318 319 320 320 320 321 321 321 321 322 323 323 324 325 325
301 301 301 302 302 302 303 303 303 302 301 299 300 303 303 306 309 311 314 316 322 321 313 313 321 319 318 316 316 317 317 319 319 320 320 320 320 321 320 322 322 323 325 326 328 326 324
301 301 302 302 302 302 302 303 303 303 301 300 299 303 302 306 307 310 314 319 321 312 314 316 320 320 318 316 316 318 318 319 319 318 319 321 321 320 321 322 322 324 324 325 323 323 322
302 302 302 302 302 303 303 303 303 303 302 301 298 302 303 304 307 308 315 320 316 315 315 314 318 322 318 315 316 318 318 318 319 319 319 320 319 319 321 321 322 324 324 323 326 326 326
302 302 302 303 303 303 303 303 303 303 302 301 301 303 303 303 306 307 314 317 315 314 316 319 316 322 321 315 316 318 318 317 318 318 319 319 320 319 322 322 322 323 322 324 325 325 323
302 302 302 303 303 303 303 303 303 303 302 301 301 304 303 303 306 308 312 313 314 316 317 319 319 322 318 318 315 317 318 317 318 318 318 319 319 322 323 323 323 324 324 323 323 324 324
302 302 303 303 303 304 304 303 303 303 302 302 302 304 303 303 306 307 311 312 313 314 318 319 319 320 323 316 316 315 317 317 317 318 319 319 320 321 320 321 322 322 323 324 324 323 324
303 303 303 303 303 304 304 304 304 303 302 302 302 304 304 304 306 306 309 311 311 315 315 318 319 318 321 323 317 317 316 318 316 318 319 320 320 321 320 320 322 322 322 322 323 323 323
304 304 303 303 304 304 304 304 304 304 302 301 303 304 306 305 307 307 308 309 312 312 314 316 317 317 319 320 321 318 317 317 316 317 319 320 319 320 322 319 318 320 321 321 322 325 322
301 304 304 304 304 304 304 305 304 304 302 301 302 306 306 306 307 307 307 309 309 312 313 316 318 318 319 320 321 319 317 320 316 316 318 320 320 320 318 318 317 318 318 318 320 320 320
302 302 303 302 303 302 302 305 304 303 302 301 302 306 307 307 307 308 307 309 309 310 313 315 317 316 317 320 320 320 320 321 321 320 320 320 320 320 320 318 318 318 318 319 320 320 321
301 301 302 302 302 303 303 303 304 303 302 301 302 304 307 307 308 308 308 305 308 310 312 313 315 316 316 317 317 317 317 317 318 320 322 322 321 322 322 320 320 323 321 320 321 321 322
301 301 302 302 302 302 303 301 304 303 301 300 301 304 307 308 308 307 306 305 307 309 312 313 315 315 314 314 314 314 315 315 316 317 318 323 322 324 323 321 331 320 319 320 321 321 321
301 301 301 302 302 303 303 301 304 302 300 301 301 304 306 309 307 307 307 305 306 308 311 313 315 315 314 314 314 314 316 318 318 319 321 321 323 325 330 324 321 320 316 320 321 321 321
302 301 301 302 303 303 302 302 304 302 300 301 302 303 308 309 310 306 308 307 309 311 313 312 313 315 315 316 319 317 316 321 323 323 318 318 319 326 322 325 334 322 319 319 319 322 320
301 302 301 302 302 303 302 304 303 302 300 301 302 303 305 307 306 306 309 308 308 310 315 314 316 316 316 318 322 320 318 317 323 325 325 322 322 327 325 330 325 321 316 316 321 324 320
301 300 301 302 303 303 303 303 302 301 300 300 301 302 305 307 307 306 308 310 308 312 315 312 314 317 318 319 320 320 323 319 319 321 323 324 326 328 324 332 330 316 314 320 322 321 320
304 303 302 302 302 302 301 303 302 301 300 300 301 302 303 306 307 306 307 308 308 310 312 316 312 315 317 317 319 319 325 323 319 320 319 322 323 326 323 324 323 317 320 318 318 320 318

GFSGBSN_925_thetae_072.txt.gz
Theta_e
305 305 305 305 307 308 308 308 307 307 307 307 307 307 307 307 304 304 309 312 313 315 317 318 317 318 318 320 319 318 316 315 315 313 316 319 318 318 317 319 320 320 320 322 321 321 321
305 305 305 305 305 306 307 307 308 307 306 306 306 306 307 307 307 304 305 309 311 314 315 316 316 317 320 321 317 316 316 322 318 318 318 319 318 318 320 320 321 321 324 323 324 325 325
306 305 305 305 304 304 303 304 304 306 307 306 306 306 306 306 306 306 303 307 311 313 314 315 316 317 319 319 316 317 316 318 320 319 319 317 317 320 321 322 322 321 321 323 326 324 322
307 308 307 306 305 303 303 302 302 303 304 306 306 305 305 305 306 306 304 305 309 311 313 315 316 316 317 314 316 317 316 316 319 319 318 319 319 320 321 321 321 322 320 322 325 325 324
304 305 306 307 306 305 304 303 303 301 302 304 306 305 305 305 306 306 305 305 308 309 312 315 316 318 318 314 317 316 315 316 319 319 318 319 320 321 321 322 322 320 321 322 325 325 326
304 304 304 304 304 306 305 304 303 303 302 302 304 306 305 305 305 306 305 306 304 313 317 317 316 316 316 314 316 316 315 314 319 320 320 320 320 320 321 322 324 323 323 324 322 324 325
303 303 303 303 303 303 305 305 304 304 303 302 302 305 305 305 304 306 306 311 316 322 320 319 317 315 314 317 315 316 315 314 317 320 322 321 321 321 322 324 324 322 321 321 323 324 324
302 302 302 302 303 303 303 304 304 304 304 303 302 302 303 305 304 306 306 313 313 317 317 315 318 318 316 317 319 318 316 315 317 320 321 322 322 321 322 324 321 320 321 321 323 324 322
301 301 301 302 302 302 303 303 303 304 304 303 302 301 302 304 304 305 307 310 314 316 318 313 313 312 313 315 318 319 317 315 317 319 321 323 322 323 322 323 322 322 322 323 325 324 324
300 300 300 301 301 302 302 302 302 302 304 303 302 301 301 303 304 309 309 312 313 317 320 310 313 314 314 314 315 317 319 318 317 318 320 322 321 323 323 323 323 324 323 324 323 323 325
300 300 300 300 300 300 301 301 301 300 301 303 302 301 301 303 306 309 314 315 317 319 312 312 314 317 316 314 315 315 317 318 319 319 320 321 322 321 323 322 322 323 323 324 324 324 325
299 300 300 300 300 300 301 301 301 301 301 302 302 301 301 304 305 306 309 310 317 320 311 313 318 318 317 315 315 316 316 318 318 318 320 320 321 320 321 322 322 322 323 324 324 325 329
299 299 299 300 300 300 301 301 302 302 302 302 303 302 302 303 306 307 309 310 318 316 310 311 317 319 317 318 316 316 316 319 320 319 322 320 320 320 321 321 322 322 324 328 332 331 332
299 299 299 300 301 301 301 301 302 302 302 303 303 303 303 302 305 306 308 314 316 310 312 315 315 319 319 319 318 317 317 317 320 318 320 321 322 320 321 322 323 323 324 332 337 336 331
298 299 300 300 301 301 301 301 302 302 302 302 302 303 304 303 303 306 310 313 314 311 310 312 316 319 322 320 319 319 319 318 319 319 320 322 321 319 321 321 322 324 325 325 330 331 334
299 299 300 301 301 301 301 302 302 302 302 302 304 304 304 304 303 306 309 309 311 311 310 311 313 318 322 322 319 318 318 318 319 318 320 322 323 321 321 321 321 322 324 327 327 331 331
299 300 301 301 301 302 302 302 302 302 302 302 304 305 304 304 304 308 310 309 309 309 312 312 311 314 314 320 320 318 317 319 319 319 319 321 323 323 321 321 321 322 323 327 325 326 330
299 300 301 301 301 301 302 302 302 302 302 303 304 305 304 304 307 307 308 309 308 308 309 312 314 315 315 316 322 318 318 318 319 318 319 321 322 324 321 321 321 322 323 325 329 327 330
300 300 300 301 301 301 302 302 302 302 302 304 304 304 303 305 307 307 307 308 308 308 309 311 313 315 317 321 320 321 320 320 319 319 319 321 322 324 323 322 322 322 321 323 325 326 328
300 300 300 301 301 302 302 303 302 303 302 304 302 304 306 307 307 307 308 308 308 308 308 310 313 313 318 319 321 322 321 319 319 320 320 322 323 323 326 325 323 322 321 322 326 330 329
300 300 301 301 302 302 302 303 303 303 303 304 301 305 307 307 307 308 308 307 308 309 308 309 311 313 314 320 318 320 321 319 317 318 320 322 325 323 321 320 321 321 322 322 322 323 327
300 301 301 302 302 303 303 303 303 303 303 304 300 305 307 307 307 308 309 310 308 308 307 309 311 312 314 319 320 321 319 321 321 321 320 319 323 322 323 320 321 321 322 322 321 320 320
301 301 301 301 301 303 303 303 304 304 303 305 302 304 307 308 308 308 309 309 309 308 308 308 309 311 316 317 318 321 319 319 319 320 324 322 322 322 324 322 320 321 321 320 319 320 320
301 301 301 302 302 301 301 304 305 304 303 304 303 304 307 309 309 310 308 308 308 308 309 308 309 310 314 316 319 318 318 318 318 318 319 323 324 322 326 324 326 321 321 320 320 319 320
300 300 300 301 301 301 302 301 302 305 304 304 303 304 308 311 308 307 309 308 309 309 309 308 309 310 311 314 318 319 319 319 318 319 318 320 325 326 327 327 323 321 321 321 321 321 321
301 301 301 301 301 301 302 302 302 302 305 304 303 304 308 310 310 307 308 308 310 310 310 311 310 310 313 316 318 321 321 320 320 318 318 318 322 326 328 327 327 324 321 321 321 323 321
301 301 301 302 302 301 301 302 302 302 300 304 303 304 306 308 308 308 309 310 309 309 311 310 311 312 316 317 320 320 320 314 319 323 322 322 324 326 326 327 326 321 320 321 324 324 323
301 301 301 302 303 302 301 302 302 303 300 304 303 304 305 308 307 308 308 309 310 310 312 310 311 312 316 316 318 320 320 317 315 320 323 325 325 327 326 327 328 321 321 321 322 324 325
302 301 302 302 301 302 301 302 302 303 302 302 302 303 305 307 308 307 306 307 307 309 311 312 311 312 315 317 318 318 323 323 318 318 318 318 323 326 325 327 326 325 323 322 323 324 325

GFSGBSN_925_thetae_075.txt.gz
Theta_e
306 305 305 305 305 306 307 308 308 308 307 307 306 306 306 307 307 306 306 303 304 308 311 313 315 315 316 320 319 316 317 316 315 314 314 315 316 317 315 314 315 318 319 319 322 321 322
306 306 305 305 304 305 305 305 305 305 306 307 306 306 306 305 306 306 306 305 303 305 310 312 314 315 318 321 314 316 317 316 316 316 315 315 318 317 315 318 317 317 318 319 322 321 322
306 308 307 306 305 304 303 303 302 302 302 304 305 306 306 305 305 305 306 306 304 303 307 311 313 315 317 317 309 312 314 316 318 318 317 318 318 316 316 318 319 319 319 318 323 322 322
305 305 306 306 307 306 305 304 303 303 302 302 303 305 306 305 305 305 305 306 305 302 304 309 312 316 317 310 310 315 316 316 316 319 319 319 318 316 319 318 319 319 317 318 317 323 322
305 305 305 304 304 304 306 306 305 304 302 303 302 302 306 305 305 304 304 305 304 300 307 311 314 316 319 315 314 314 314 315 317 316 318 318 317 319 319 319 318 319 319 318 319 322 323
304 304 304 304 303 303 303 303 305 305 303 303 303 302 303 306 305 304 304 305 299 307 311 316 317 316 316 316 315 316 316 315 315 318 318 318 317 318 316 317 321 321 321 322 322 323 324
303 303 303 303 303 303 303 303 302 303 304 304 303 303 301 303 304 304 304 305 312 316 316 320 318 315 313 316 316 315 316 314 313 315 319 318 318 319 316 318 320 321 322 319 320 322 322
303 302 302 302 302 303 303 303 303 303 303 304 303 303 302 301 302 304 304 307 312 312 315 317 320 319 316 318 318 316 316 313 313 313 318 319 320 319 319 319 320 322 319 319 318 323 322
302 302 302 302 302 302 302 303 303 303 302 303 304 303 302 301 300 303 304 306 309 310 315 315 314 312 313 314 317 316 316 314 313 313 316 320 321 320 320 320 321 320 320 320 322 321 321
300 300 301 301 301 301 302 302 302 302 301 302 302 303 302 301 302 306 308 310 313 314 318 313 312 312 312 311 314 314 315 315 313 314 316 318 320 321 321 321 322 321 321 322 323 321 321
299 300 299 300 300 300 300 300 300 300 301 300 300 303 302 301 303 305 307 308 309 318 309 309 311 313 312 311 313 313 314 316 314 314 315 317 320 321 321 322 322 321 322 323 323 322 322
299 299 299 299 299 299 299 299 300 300 301 301 301 301 303 302 301 302 305 308 311 319 319 312 316 317 315 312 312 313 312 314 316 315 316 316 317 318 319 321 321 321 321 321 322 321 324
298 298 298 298 299 299 299 299 300 300 301 301 302 302 303 302 302 304 306 310 316 318 308 307 316 318 317 314 313 313 313 314 316 318 318 318 317 318 319 319 320 320 322 325 328 325 326
298 298 298 298 299 299 299 300 301 301 301 301 302 303 303 303 302 302 307 312 315 309 310 312 312 314 318 317 314 314 313 314 316 317 316 318 319 318 318 319 321 319 321 327 332 331 332
298 298 298 299 299 299 300 300 301 301 301 301 302 302 303 303 302 302 307 311 310 309 309 309 309 309 317 317 318 315 315 315 315 317 317 317 318 318 318 320 320 322 322 322 330 328 331
298 298 298 299 299 300 300 300 301 301 302 302 303 303 303 303 303 303 307 307 307 308 308 309 310 311 311 317 319 318 317 317 316 316 317 319 322 319 318 319 319 320 322 324 324 331 332
298 298 298 299 299 299 300 300 301 301 302 302 303 304 303 303 303 303 306 306 307 307 307 308 308 310 313 315 315 318 318 317 316 315 317 317 319 320 320 319 320 320 320 322 325 326 324
297 298 298 298 299 300 300 300 301 302 302 302 303 304 303 304 306 304 304 304 305 306 306 307 307 309 313 313 314 316 321 317 316 317 317 316 321 321 320 319 320 320 320 322 328 327 325
297 298 298 299 299 300 300 301 301 302 302 303 302 303 303 304 307 305 304 305 305 306 307 307 307 309 309 311 315 320 323 319 317 317 318 318 320 322 321 320 320 319 320 321 322 323 325
298 298 299 299 300 300 301 301 301 301 302 303 299 303 305 306 305 306 305 306 307 306 307 307 308 308 309 311 315 319 319 322 318 317 319 319 321 322 322 321 322 321 320 320 321 322 323
299 299 299 299 299 300 300 300 301 302 302 303 300 302 304 307 307 306 305 306 307 307 306 307 307 307 309 311 316 316 321 321 319 318 318 319 321 320 320 320 322 321 321 320 319 321 327
298 299 299 300 300 300 301 301 301 302 303 304 299 304 304 305 305 307 306 308 307 307 307 307 308 307 308 309 315 316 318 322 322 318 317 318 319 320 321 321 320 320 320 319 319 320 320
299 299 300 300 300 301 301 301 301 302 303 303 301 302 304 305 306 306 306 306 308 308 307 306 307 307 306 308 315 317 319 318 319 320 320 319 320 321 321 321 321 319 318 320 320 320 319
300 300 300 300 300 301 302 302 302 302 303 303 302 303 303 307 305 307 306 306 306 308 309 307 307 307 307 306 317 316 316 318 317 315 317 321 323 321 321 319 323 320 319 319 319 319 318
298 298 299 299 300 300 301 301 301 303 303 304 303 303 304 304 307 306 307 307 306 307 308 308 308 307 306 309 315 316 316 317 317 318 317 318 322 322 322 323 321 321 319 319 319 318 318
299 300 300 299 300 300 300 301 301 301 303 304 303 303 304 304 305 306 307 307 307 306 307 307 307 306 308 306 312 313 315 320 320 320 317 319 319 320 321 323 323 321 320 318 319 319 319
300 300 301 301 301 301 300 300 301 301 301 304 304 303 303 305 305 306 306 306 307 307 307 307 308 308 308 307 309 311 314 316 318 319 318 316 318 321 317 323 322 321 319 319 320 317 318
300 301 301 302 302 302 302 301 301 301 302 302 304 303 304 305 306 305 307 307 307 308 308 307 309 308 308 308 310 311 309 315 315 317 319 319 319 320 320 323 326 320 319 320 318 318 319
301 301 301 302 301 302 302 302 301 301 301 301 303 303 303 305 306 306 307 306 307 307 309 308 308 307 309 310 311 311 310 309 311 313 318 321 321 322 322 320 319 321 319 320 319 320 321

GFSGBSN_925_thetae_078.txt.gz
Theta_e
307 306 306 306 305 305 305 306 307 306 305 306 307 307 306 306 305 305 305 305 306 305 303 304 310 313 314 318 319 312 315 315 314 312 311 313 314 316 316 314 313 314 315 316 317 319 319
306 307 307 307 306 305 305 303 302 302 302 302 303 305 306 306 305 305 305 304 305 305 305 303 308 313 316 317 308 311 315 315 314 314 313 313 314 315 316 314 316 317 317 317 318 319 320
306 305 305 306 307 307 306 305 304 303 303 302 302 302 304 305 306 305 305 304 304 303 304 304 306 313 314 314 305 309 313 315 316 316 315 315 314 316 314 315 317 318 317 315 316 319 321
305 305 305 305 304 304 305 306 306 305 304 303 302 303 301 303 306 305 304 304 304 303 303 302 308 313 314 308 306 309 308 313 312 314 318 318 317 315 314 315 317 318 316 317 316 319 321
303 304 304 304 304 303 303 302 302 303 305 304 303 303 302 302 305 305 304 304 302 302 303 306 312 314 316 312 315 316 314 313 315 316 316 319 318 315 317 317 316 317 318 318 318 317 321
303 303 303 304 303 303 303 303 302 302 301 303 303 303 303 301 301 303 303 303 302 306 308 313 316 314 314 311 314 315 315 312 314 315 315 317 314 315 314 315 319 318 319 319 319 319 321
302 303 303 303 303 303 303 303 303 302 302 302 302 303 303 302 300 300 301 303 310 313 312 317 318 314 311 313 316 316 315 314 313 314 316 317 316 317 315 315 317 318 319 319 319 317 323
301 301 302 302 302 302 302 302 302 302 302 302 302 303 303 302 300 300 301 305 307 308 311 310 312 316 317 317 318 317 315 313 312 312 316 318 319 317 316 316 317 318 319 319 318 319 320
301 301 301 302 302 302 302 302 302 301 301 302 302 302 303 302 299 300 304 305 307 308 311 312 312 314 315 315 319 318 314 312 313 312 313 317 320 318 318 319 320 319 319 319 318 319 319
301 301 300 301 301 301 301 301 302 301 300 301 301 301 302 303 300 303 305 306 308 308 313 311 313 311 312 311 314 313 312 314 312 313 312 313 316 319 319 320 319 319 319 320 322 321 321
300 299 299 299 301 300 299 299 300 300 299 300 300 300 300 303 301 301 302 306 307 312 298 304 310 311 311 308 310 312 312 314 313 313 312 315 317 318 319 320 320 320 320 321 322 322 320
300 300 300 300 300 298 298 298 299 299 299 299 301 301 301 303 302 300 301 304 310 316 311 309 312 311 311 310 311 312 312 313 315 313 313 313 314 316 318 319 319 320 320 320 320 320 322
299 299 298 298 298 298 299 298 298 298 299 300 300 301 302 303 301 301 301 307 316 315 310 307 315 311 314 311 311 312 312 312 315 317 316 313 313 314 316 317 317 318 319 322 323 323 324
297 298 299 299 298 298 298 298 298 298 300 300 300 301 302 302 302 302 303 310 313 310 311 310 308 308 308 310 312 312 312 311 311 315 316 316 318 315 316 316 318 318 319 322 326 327 328
298 298 298 297 298 298 298 298 298 299 300 301 301 302 302 302 302 302 305 309 308 307 307 308 309 308 310 312 313 314 312 312 311 313 316 317 317 315 316 316 318 319 321 321 325 327 326
297 297 297 297 298 298 298 298 299 300 300 301 302 302 301 302 303 303 305 306 305 306 306 307 308 309 311 310 313 314 315 314 313 313 315 317 318 316 317 316 317 319 320 323 325 330 331
296 297 297 297 297 298 298 298 299 300 300 301 302 303 303 302 303 304 302 304 304 304 304 307 308 307 307 308 311 314 315 313 314 314 314 316 317 317 317 316 317 319 320 321 322 325 326
295 297 297 297 297 297 298 298 299 300 300 301 303 304 303 303 304 304 303 301 303 303 304 305 306 306 306 307 309 310 312 313 317 317 315 315 317 318 317 317 317 318 320 320 323 325 323
296 296 297 297 297 297 298 298 298 299 300 303 303 302 303 303 305 305 305 303 302 303 304 306 307 307 307 308 309 315 316 315 314 319 318 314 317 319 318 317 318 318 318 319 321 323 324
296 297 297 297 297 298 298 298 299 299 300 302 297 303 304 304 303 305 306 306 305 303 302 303 305 306 307 308 308 312 316 315 317 318 319 318 318 317 318 319 319 320 320 319 320 322 321
297 297 297 298 298 298 298 299 300 300 301 303 296 302 304 305 305 305 304 306 306 305 306 305 306 305 306 308 309 309 314 317 315 317 319 319 320 320 317 320 320 320 320 320 320 320 321
298 299 299 299 299 300 299 300 300 301 301 302 298 303 303 302 304 305 305 306 306 306 304 305 306 306 306 306 307 308 313 315 318 317 319 318 318 320 321 321 321 321 320 320 319 318 318
298 298 298 298 299 299 299 299 299 300 300 301 301 299 304 304 305 305 305 304 307 305 305 305 305 306 306 306 306 307 313 316 316 317 317 319 319 319 320 320 321 321 320 321 320 318 318
298 299 299 299 300 300 299 300 300 300 300 301 301 302 302 306 303 305 304 306 306 305 306 307 307 306 305 305 306 312 314 316 315 315 314 316 318 316 318 318 325 320 318 319 320 318 317
297 297 298 298 299 300 301 301 301 301 300 302 302 302 303 304 306 304 304 305 305 305 305 305 306 307 305 304 309 311 312 314 315 315 314 316 318 317 320 320 321 320 319 318 319 318 316
298 297 298 298 298 298 299 300 301 301 302 302 301 303 303 304 304 305 305 305 305 305 305 305 305 306 305 306 309 310 309 314 316 318 318 318 317 318 317 321 319 318 318 317 318 319 317
298 298 298 299 299 299 299 299 299 300 301 303 303 303 303 304 303 304 306 306 305 305 304 305 305 305 305 305 307 307 309 311 314 315 318 315 317 318 315 321 320 319 318 317 322 317 316
298 299 300 300 300 300 300 300 300 299 300 301 302 303 302 304 303 303 306 306 305 305 305 305 306 306 305 305 307 306 305 310 315 314 316 318 318 320 319 321 323 318 320 319 317 316 318
299 300 301 301 301 301 301 301 301 300 300 300 301 303 302 303 304 303 303 305 305 305 305 304 306 306 306 306 305 306 307 305 312 313 312 316 319 319 317 318 318 316 320 319 317 319 319

GFSGBSN_925_thetae_081.txt.gz
Theta_e
307 307 306 306 306 306 306 306 303 302 302 301 302 302 304 305 306 306 305 305 304 304 304 303 303 306 313 315 316 310 316 312 313 311 310 311 313 314 315 314 313 312 313 314 314 314 316
305 305 305 305 306 307 307 306 305 304 303 302 302 302 301 303 304 305 306 305 304 304 304 303 303 306 313 314 307 308 312 315 314 311 311 312 311 312 315 315 314 315 315 315 314 315 317
305 305 305 303 304 304 304 305 306 306 305 304 303 302 302 301 302 304 305 305 304 304 303 303 303 309 312 310 304 308 312 312 316 314 313 313 313 314 315 316 315 316 316 314 314 315 318
304 304 304 304 304 304 303 302 302 302 303 304 304 303 303 302 301 302 303 303 303 302 302 303 306 311 312 306 306 307 308 308 308 312 313 315 315 314 315 314 315 316 316 316 315 316 317
303 303 303 303 304 303 303 303 302 303 303 301 302 303 303 302 301 300 299 299 301 303 303 304 310 311 313 310 312 312 315 312 308 313 314 315 316 316 316 316 315 315 315 316 317 316 317
304 304 303 303 303 303 303 303 303 302 302 302 302 301 303 303 302 300 299 302 312 309 308 310 314 312 310 311 312 315 314 313 312 313 314 314 314 314 313 314 318 316 317 318 318 317 319
303 304 303 303 303 302 302 303 302 302 301 301 302 302 302 303 302 299 300 303 307 309 309 313 314 314 313 314 316 316 316 312 312 313 313 314 315 317 316 314 316 317 318 317 316 316 318
301 300 303 303 303 302 302 302 302 301 301 301 301 302 301 303 302 299 305 304 306 306 309 310 311 310 312 314 315 314 315 313 312 313 314 316 318 316 315 314 316 317 317 317 316 316 317
302 301 301 302 303 303 301 301 301 301 301 301 300 301 301 302 303 300 303 306 304 306 311 311 310 311 311 310 313 314 315 312 312 312 313 314 317 317 316 317 318 317 318 318 317 317 317
301 301 301 300 301 302 301 301 300 301 300 300 299 300 299 300 301 300 301 302 305 307 310 309 312 310 311 312 314 312 313 313 312 313 311 312 313 317 317 317 317 319 317 318 318 318 321
300 298 298 300 300 300 299 299 299 299 299 300 298 300 300 300 304 301 299 301 305 309 297 303 310 310 310 308 306 311 311 311 313 312 311 312 313 314 317 319 317 319 318 319 319 319 319
297 300 300 299 299 299 299 299 298 298 299 298 298 300 301 300 303 301 301 303 309 312 308 306 309 311 311 309 309 311 311 311 311 313 311 311 313 314 315 316 317 318 319 319 318 318 321
298 298 299 299 299 298 297 298 298 298 298 298 299 299 301 301 301 301 301 305 314 311 308 308 310 307 307 310 310 310 311 311 314 314 316 312 312 313 316 317 316 317 318 320 321 321 322
297 297 298 297 297 297 298 299 297 298 297 298 299 300 301 301 302 302 302 307 312 310 310 309 307 307 306 312 313 314 310 310 310 314 314 316 315 312 312 315 316 316 318 320 324 323 322
298 298 297 298 298 298 298 298 297 297 297 298 300 301 301 301 302 302 301 305 304 308 307 306 306 309 310 308 311 314 314 312 309 310 316 316 315 314 313 314 315 316 318 318 320 324 325
297 297 297 296 296 296 297 297 297 297 298 299 301 300 300 300 302 302 302 301 303 305 305 305 306 306 308 306 308 313 314 314 313 315 311 315 317 315 315 314 315 316 318 321 322 327 329
297 297 297 297 297 296 297 297 297 297 298 300 301 302 301 301 302 303 302 300 302 301 302 305 307 306 305 305 306 312 314 312 315 316 318 313 314 316 316 315 315 317 319 319 321 322 324
296 296 295 295 296 296 296 297 297 296 297 299 301 302 302 301 303 303 302 300 302 302 303 303 304 304 305 306 306 307 311 311 313 316 317 319 315 316 316 315 315 315 318 320 321 323 321
296 295 296 295 296 296 296 296 297 296 297 300 302 302 302 302 302 303 303 302 301 301 303 304 306 305 305 305 306 307 308 313 315 316 317 318 319 317 317 316 315 317 317 318 319 320 323
295 295 295 296 296 296 296 296 296 297 298 299 298 302 303 303 302 301 303 305 305 302 301 302 304 304 305 306 306 308 310 312 315 316 317 318 321 322 319 316 316 318 318 318 320 320 320
295 296 296 296 297 296 296 297 297 297 297 300 299 301 303 304 304 304 303 304 306 305 303 302 303 302 303 304 305 305 306 307 313 315 313 318 320 319 318 315 319 319 319 319 320 318 320
295 296 296 297 297 297 297 298 298 298 298 301 299 302 303 301 303 305 304 304 304 305 304 305 305 306 304 304 304 304 305 305 313 315 314 314 319 318 319 315 316 319 321 321 320 319 318
296 297 298 298 298 298 298 298 299 298 299 301 300 298 302 303 303 305 305 304 305 303 305 304 304 304 304 305 304 304 304 305 311 315 311 310 316 316 319 319 321 322 320 320 320 318 317
297 297 297 298 298 298 298 299 299 299 300 300 300 300 302 304 303 304 304 304 304 305 304 304 304 304 304 304 304 304 305 306 307 313 313 312 312 315 315 316 325 320 318 318 319 319 318
298 299 300 299 299 299 299 299 299 299 299 300 301 301 302 303 304 303 303 304 304 304 304 305 305 305 304 305 307 307 308 311 311 314 314 313 313 316 320 318 317 319 318 318 320 319 318
297 297 297 297 297 297 299 300 300 300 299 300 300 301 302 303 303 304 303 303 304 305 304 304 304 304 303 305 307 311 306 309 312 317 314 314 314 316 318 323 318 315 316 316 317 321 317
296 297 297 297 297 297 297 298 299 301 300 300 300 300 302 303 303 303 304 304 303 304 304 304 304 304 303 305 309 310 309 309 309 313 315 315 315 318 319 322 317 315 318 318 323 319 317
297 297 297 297 298 298 298 298 298 298 301 301 300 301 302 303 304 302 303 304 304 304 304 304 305 303 303 304 306 306 302 306 308 311 313 314 315 316 318 320 319 316 320 320 317 315 316
297 297 297 298 298 299 299 300 299 299 299 301 301 301 301 302 304 303 302 303 304 304 304 304 304 304 304 304 303 303 303 300 308 309 311 314 313 316 317 317 315 315 318 318 317 317 317

GFSGBSN_925_thetae_084.txt.gz
Theta_e
305 305 305 305 306 307 306 307 306 304 303 303 302 302 301 302 301 302 304 304 305 305 304 304 303 304 307 310 311 307 314 313 312 312 310 310 312 313 314 312 312 311 312 312 312 312 312
303 304 303 304 303 303 304 305 305 306 306 304 304 303 301 301 302 301 302 303 303 303 303 302 302 305 312 305 305 308 311 313 313 311 310 309 310 311 313 314 313 313 313 313 312 312 314
303 304 303 303 303 303 303 303 302 302 302 303 304 304 303 303 302 301 300 299 299 299 299 300 303 307 310 305 303 307 310 310 315 313 311 311 312 313 314 315 314 314 315 312 313 314 316
304 303 303 303 303 303 303 303 303 302 303 302 300 300 301 303 303 301 299 298 298 302 303 304 306 308 309 303 303 306 306 307 306 308 312 314 314 312 314 314 314 316 313 315 312 315 316
303 304 303 303 302 302 303 302 303 302 302 302 302 302 300 301 303 302 300 297 305 307 305 304 308 309 308 306 311 310 313 312 312 308 311 314 314 314 314 315 314 313 315 314 315 315 317
302 303 303 303 303 302 302 302 302 302 302 302 301 302 302 301 302 303 299 306 311 309 307 309 311 308 303 305 313 315 313 313 311 311 313 314 314 314 312 313 315 316 316 316 316 316 315
303 303 302 303 304 302 302 302 301 302 301 301 301 301 302 301 301 302 303 305 304 305 306 310 309 310 311 314 315 314 314 311 310 312 312 312 313 315 315 314 313 314 316 316 314 314 316
301 302 303 301 302 302 304 304 301 301 301 301 301 300 301 301 300 301 303 305 305 303 307 306 307 308 309 311 312 310 314 312 312 313 312 315 315 314 313 313 315 316 317 316 314 314 315
299 300 301 302 302 300 302 303 302 300 301 301 300 299 299 299 298 301 299 304 301 303 310 309 309 310 310 310 310 309 310 312 312 312 313 314 315 315 315 315 316 315 316 316 315 315 314
300 299 299 300 301 302 301 302 301 300 299 299 299 300 299 300 299 302 300 300 301 303 310 308 311 309 309 310 311 309 310 311 312 312 312 313 313 314 316 316 316 316 315 316 317 317 318
299 299 299 300 301 300 298 299 299 299 299 299 299 299 299 300 301 302 300 300 301 307 302 303 310 309 309 309 306 311 311 311 310 311 311 312 312 313 314 316 315 316 316 317 317 317 317
298 297 297 298 298 299 299 299 299 298 297 298 298 298 299 301 301 300 301 301 307 312 308 305 310 311 310 310 309 310 310 309 310 312 310 310 311 311 312 315 315 317 318 318 317 317 320
297 297 298 297 298 299 299 299 297 296 297 298 297 297 299 301 300 300 300 303 313 310 306 308 308 306 307 310 311 311 311 310 310 312 312 312 311 311 314 314 315 317 316 319 320 321 322
296 295 296 298 298 297 298 298 296 297 297 298 297 298 300 300 301 301 301 305 310 308 310 306 305 307 309 306 312 313 310 309 308 312 309 308 309 311 311 314 316 316 316 319 324 323 321
297 297 297 297 297 298 298 297 298 297 296 297 296 299 300 300 301 302 300 301 306 305 306 305 304 307 308 305 308 311 314 314 312 310 315 315 313 312 312 312 314 315 318 316 319 321 323
294 295 296 296 296 296 296 297 297 296 296 296 299 299 300 300 301 302 302 300 299 304 304 304 304 305 304 303 303 304 311 313 315 315 315 312 317 314 314 311 312 314 316 319 318 323 326
296 296 297 296 296 296 296 297 296 296 296 296 299 301 299 299 301 302 301 299 301 301 300 303 305 304 305 305 304 306 308 311 314 315 315 317 312 312 312 314 313 315 316 318 319 319 322
296 296 297 295 296 295 295 295 295 296 296 296 299 301 300 300 302 302 301 300 300 300 302 301 304 304 303 304 304 304 308 308 310 315 317 317 319 316 314 312 312 313 314 316 319 321 319
296 296 296 296 296 297 296 295 295 296 296 297 299 300 300 301 302 301 301 301 301 300 301 303 305 304 303 303 303 304 304 307 313 316 316 314 319 321 316 314 314 314 315 316 318 318 320
295 295 296 295 296 296 297 296 295 295 295 297 299 301 301 302 300 299 300 302 302 302 300 300 303 302 304 304 305 306 306 306 306 305 316 313 316 319 322 320 318 318 315 315 318 319 319
295 295 295 295 296 296 296 296 296 296 295 297 298 300 301 298 302 301 299 301 301 303 302 300 300 301 302 303 302 302 303 303 303 306 314 315 315 315 317 319 319 319 318 315 317 317 319
294 294 295 295 295 295 295 296 296 296 296 297 298 300 300 304 301 302 302 302 302 302 303 303 302 304 302 302 302 304 305 305 305 312 313 312 313 314 316 313 317 318 317 317 317 317 317
294 295 295 295 296 296 296 296 296 295 296 297 297 298 300 302 301 303 303 303 303 302 304 303 303 304 304 304 303 303 302 303 303 304 311 313 314 314 314 313 316 318 315 318 318 317 317
295 295 296 296 296 297 297 297 297 297 296 297 298 299 300 302 302 302 303 303 302 303 303 304 304 304 304 303 304 305 304 304 304 304 305 310 313 311 316 317 324 319 315 315 317 317 315
297 297 297 297 297 297 297 298 298 298 298 298 298 300 301 302 302 302 302 303 304 303 304 304 304 304 304 305 309 308 305 308 306 305 305 309 312 315 317 318 319 317 317 318 318 318 316
297 297 298 298 299 300 299 298 298 298 298 299 299 299 301 301 301 302 302 303 304 304 304 304 304 304 304 305 307 309 307 308 308 311 308 311 311 313 316 319 319 317 314 316 317 319 316
297 298 298 297 297 297 297 297 299 299 299 299 300 300 300 302 301 301 302 303 303 304 305 304 304 304 303 305 306 307 307 308 308 307 314 313 313 314 316 319 318 317 316 315 320 317 316
297 297 297 296 296 296 297 297 297 298 299 300 300 299 300 300 302 301 302 303 303 304 304 304 305 304 304 306 307 307 305 305 306 307 311 310 314 315 317 318 318 314 315 321 317 315 316
297 297 297 297 296 296 296 297 297 298 298 300 299 300 299 301 302 301 302 302 303 303 304 305 305 304 303 304 301 302 302 300 306 307 306 309 311 312 314 316 314 312 313 312 315 318 316

GFSGBSN_925_thetae_087.txt.gz
Theta_e
304 304 304 304 304 303 304 304 305 305 305 305 305 304 304 303 302 301 301 300 300 300 299 299 300 303 305 306 307 303 309 313 312 315 310 311 313 314 316 314 312 313 314 313 313 312 314
303 303 304 303 303 303 303 303 302 302 302 302 302 302 303 303 301 302 302 300 299 297 298 300 303 305 311 301 302 305 308 311 310 310 309 309 312 313 315 315 314 315 313 314 315 316 315
305 304 303 302 303 303 303 303 303 303 303 302 303 300 299 298 298 300 301 301 298 300 303 304 305 306 307 306 302 306 310 309 314 311 310 309 311 313 314 316 314 315 317 316 316 315 316
303 303 303 304 302 303 302 302 302 302 302 302 302 302 301 302 301 299 300 299 300 305 307 307 306 306 306 302 302 303 303 305 304 310 311 313 313 313 314 314 316 317 315 317 314 316 316
303 303 304 304 304 304 302 302 302 302 302 302 301 301 301 302 301 299 298 298 305 308 303 305 306 307 306 304 308 308 310 310 309 307 309 313 313 316 315 316 316 315 316 316 316 316 318
303 303 302 303 302 302 303 301 302 301 301 301 301 301 301 301 301 299 298 304 306 308 308 309 309 307 303 304 313 314 313 313 311 311 313 314 316 318 316 316 315 314 318 317 318 317 316
300 301 302 302 303 300 301 302 302 302 301 301 301 301 300 299 299 298 300 305 305 305 304 308 307 308 308 310 313 314 312 311 311 311 313 315 316 319 319 317 315 315 316 318 317 316 316
299 299 300 301 301 302 302 300 302 302 301 300 300 300 300 298 299 297 301 305 302 301 305 305 306 305 306 307 309 309 312 313 312 312 313 315 318 316 315 316 318 317 318 318 317 315 316
298 300 300 300 300 301 302 302 299 301 301 300 299 300 300 299 299 301 301 302 300 301 308 308 308 308 308 307 308 309 307 312 313 313 313 315 316 315 315 316 318 318 319 318 317 316 316
298 299 299 300 300 300 301 300 300 299 300 299 299 299 299 299 299 300 300 301 300 302 310 308 310 309 310 309 310 308 307 308 313 314 313 313 312 315 316 317 317 318 316 317 317 318 316
300 298 297 297 297 298 298 301 299 298 298 299 298 298 299 298 300 300 300 300 301 305 305 303 309 308 309 310 308 310 308 309 307 313 313 314 313 314 315 317 316 317 317 317 318 318 319
297 298 299 298 298 298 298 298 299 299 298 297 296 296 298 298 301 300 300 300 306 313 307 305 310 311 310 310 309 309 311 310 310 308 311 312 311 313 314 314 316 317 317 318 318 320 324
298 297 298 297 296 298 298 298 299 299 297 296 296 298 297 299 300 301 301 302 313 310 305 308 307 306 307 308 312 312 311 311 311 310 310 312 312 312 314 314 316 317 319 321 324 324 324
297 295 295 296 297 298 298 297 298 297 297 297 297 297 297 298 300 301 301 306 308 304 309 306 305 306 309 304 308 313 310 310 312 311 312 309 308 312 312 315 317 318 320 321 320 325 324
296 297 296 296 297 297 297 297 298 298 297 297 297 296 297 298 300 300 302 304 303 305 305 305 304 307 308 304 305 307 314 314 314 316 314 316 310 311 311 313 316 317 318 318 320 322 326
295 295 295 295 295 296 296 296 297 297 297 296 297 298 298 299 300 301 301 298 299 302 302 304 304 305 304 303 303 303 310 313 314 313 316 317 316 314 313 312 313 316 317 320 319 320 322
295 295 296 296 297 296 296 296 295 296 296 296 297 298 298 298 299 301 300 299 300 300 302 301 305 304 304 304 305 305 309 310 311 311 316 316 316 315 313 313 314 314 315 318 319 321 321
294 295 295 295 296 295 295 295 295 296 297 296 297 299 298 299 300 300 300 299 299 300 301 302 304 303 302 303 303 301 304 306 305 314 314 315 319 321 318 315 314 313 314 315 318 317 323
295 294 295 295 295 295 295 295 294 295 296 297 297 298 299 299 300 299 299 300 300 300 299 302 304 304 304 302 299 302 304 305 307 309 307 308 314 312 317 315 315 317 316 316 316 318 319
294 294 296 296 296 296 296 295 294 295 296 296 297 298 299 300 300 300 300 301 301 301 300 300 301 303 304 305 305 306 305 304 305 303 306 313 313 308 311 319 316 316 316 317 320 321 319
295 295 295 295 295 296 295 296 294 295 295 296 296 299 298 300 300 300 300 300 300 300 301 301 300 301 303 304 303 303 302 303 304 307 307 313 314 314 314 313 314 316 315 317 320 321 319
294 295 295 295 295 295 296 296 295 295 295 296 295 297 298 300 299 301 302 300 300 300 302 303 301 302 301 302 302 302 304 305 305 308 312 312 314 313 313 314 315 314 314 315 319 319 319
294 294 294 294 294 295 295 295 294 294 295 296 295 297 298 299 299 301 301 301 301 301 301 302 302 302 303 304 302 303 303 303 304 305 305 307 310 312 314 313 314 315 315 317 318 319 318
294 294 294 294 295 295 295 295 296 295 295 295 295 296 297 299 298 299 299 302 302 301 301 303 303 304 304 303 304 305 304 304 305 305 305 308 309 310 311 312 314 311 314 317 318 318 317
295 295 295 296 296 296 296 296 296 296 296 296 296 296 297 297 299 299 301 300 302 302 303 302 304 304 304 304 308 307 307 307 307 306 306 306 307 308 311 312 313 310 317 317 320 321 318
295 296 296 296 296 297 297 297 297 297 297 297 296 296 297 298 296 299 301 302 303 303 303 303 304 304 304 306 308 308 308 308 308 310 306 306 307 309 311 314 316 314 318 316 317 322 318
296 297 297 297 298 298 298 297 297 298 298 297 298 296 297 298 300 299 301 302 302 303 304 304 304 304 304 305 307 307 305 307 309 308 312 309 309 310 309 309 311 316 316 318 320 319 315
297 297 298 297 297 298 297 297 298 299 298 299 298 298 297 298 298 300 301 301 302 303 305 305 305 304 304 306 307 306 307 307 306 307 312 311 313 312 311 312 315 314 316 317 316 314 314
297 297 298 298 297 297 296 297 297 297 299 298 299 299 299 298 300 299 300 301 301 302 303 304 305 304 305 307 305 306 307 305 307 307 305 309 312 314 314 315 314 312 314 314 314 314 314

GFSGBSN_925_thetae_090.txt.gz
Theta_e
304 304 303 303 303 303 303 303 303 302 302 302 302 301 300 300 301 300 298 300 300 299 297 300 303 305 306 309 306 306 306 313 316 315 314 317 318 318 318 318 318 318 317 317 317 317 317
304 305 304 303 303 303 303 303 302 303 303 303 302 302 301 301 302 301 299 298 298 298 301 304 306 305 308 308 304 307 307 312 313 316 317 315 316 317 316 317 317 318 317 317 317 317 318
305 304 303 303 304 302 302 303 302 302 302 302 302 302 301 301 301 301 299 296 297 299 304 307 307 307 308 306 305 309 308 311 314 312 315 315 315 314 316 317 317 317 317 317 317 318 318
303 304 304 304 303 303 303 303 302 302 301 302 302 301 301 301 300 300 297 296 297 303 308 304 306 308 309 305 305 307 306 306 307 310 312 312 313 315 317 317 317 318 318 319 318 317 318
303 303 303 303 303 301 301 302 302 301 302 301 301 301 301 301 300 297 296 296 303 307 304 305 307 308 307 304 307 309 308 308 308 307 313 314 315 316 317 317 317 318 319 320 319 318 317
300 301 301 302 303 302 301 300 300 302 302 301 300 301 301 300 299 297 296 301 305 308 309 309 308 308 307 305 311 314 315 314 314 309 313 315 317 318 318 317 320 320 320 319 319 319 320
301 301 299 300 301 302 302 302 301 300 301 301 300 300 300 300 300 298 300 306 306 309 305 308 308 308 307 309 310 313 314 315 313 311 310 315 317 319 317 318 318 318 318 318 318 318 319
300 300 299 299 299 300 301 302 302 301 300 301 300 299 299 299 299 297 303 306 303 303 306 306 306 307 306 306 308 309 313 316 315 315 312 317 318 316 317 318 318 318 317 318 318 318 318
301 300 299 300 302 301 301 301 301 302 300 299 299 299 299 299 299 302 303 304 302 302 307 307 308 309 309 308 308 307 309 315 316 316 313 317 316 316 317 318 318 318 319 319 318 319 319
298 297 298 298 299 300 299 300 301 300 299 298 298 299 298 298 301 302 303 304 302 304 311 309 310 311 311 309 310 309 308 310 315 315 315 314 314 316 317 316 316 317 317 318 319 319 320
299 299 299 299 299 299 298 298 299 299 300 299 298 297 297 297 300 302 302 302 302 306 305 305 311 310 311 311 311 312 310 308 308 315 316 315 315 314 317 317 315 317 316 317 318 320 320
297 297 298 298 298 298 298 299 299 298 299 299 298 296 296 298 301 301 302 302 307 311 305 307 312 311 311 311 311 312 311 311 308 309 313 315 314 315 315 316 317 318 319 319 320 321 323
296 297 297 298 297 297 297 297 299 298 299 298 297 296 298 299 301 302 302 303 309 303 304 307 310 308 309 311 313 313 313 313 312 308 308 310 311 313 314 315 315 317 317 321 324 324 323
297 296 296 297 297 297 297 298 298 297 298 297 297 297 299 299 300 301 302 304 304 301 305 308 307 307 310 306 309 314 313 312 314 313 314 309 309 309 312 313 316 317 318 322 324 324 323
295 295 296 296 297 296 297 297 297 297 297 297 298 299 299 299 299 301 304 302 300 302 304 307 306 307 310 305 305 311 315 315 312 312 314 315 309 313 311 313 313 317 320 319 322 320 323
295 296 296 295 296 296 296 297 297 297 297 298 299 298 298 299 300 301 303 300 300 304 303 304 304 305 309 305 305 305 315 315 312 309 317 314 317 314 315 314 313 314 316 319 320 321 322
295 295 294 295 295 296 295 296 296 295 296 297 298 300 298 300 301 302 302 299 299 300 302 303 306 305 305 304 303 302 308 311 308 310 313 313 318 316 316 316 316 316 317 318 320 320 322
294 295 295 295 295 295 295 295 296 296 295 297 298 300 300 300 301 301 301 299 299 300 301 302 303 302 303 302 302 302 301 304 305 304 308 308 316 318 318 316 316 317 317 317 320 321 322
294 295 294 294 295 295 295 295 295 295 296 297 299 299 299 300 301 300 300 300 299 299 300 301 303 304 303 301 300 302 303 307 307 308 308 308 315 315 315 317 318 318 319 319 320 320 320
294 295 295 294 295 295 295 295 295 295 295 297 299 300 300 300 301 301 300 300 300 300 300 300 300 302 302 301 302 300 305 307 307 306 305 307 309 308 310 312 314 315 316 316 318 323 321
295 295 295 295 294 294 295 295 294 294 295 296 296 299 299 299 301 301 301 300 299 301 301 302 301 301 302 303 304 304 304 306 306 309 310 308 307 309 311 311 311 312 312 314 316 317 321
294 294 294 295 294 295 295 295 294 294 295 296 300 299 299 299 300 300 301 302 300 300 300 302 302 302 302 304 304 304 304 304 306 307 311 312 312 311 312 312 312 311 311 311 313 315 316
294 294 294 294 295 295 294 295 295 294 295 295 295 297 299 298 299 301 301 301 302 301 301 301 303 303 303 304 304 304 305 305 306 307 308 309 311 311 310 311 312 313 313 312 312 314 317
294 294 295 295 295 295 295 294 293 294 294 296 297 298 299 299 298 299 299 301 302 301 302 302 302 303 304 305 305 306 306 306 307 307 307 308 309 309 310 309 309 307 311 313 313 316 318
294 295 295 295 295 295 295 295 294 294 294 295 296 297 298 298 297 298 299 299 300 301 302 302 302 303 304 305 307 307 307 307 308 307 308 308 309 309 312 310 308 308 312 310 317 316 321
294 295 295 295 296 296 296 296 295 295 296 296 296 296 298 298 298 296 298 300 301 302 302 303 303 303 305 308 309 307 312 309 310 310 309 308 309 310 309 311 311 315 313 317 317 318 319
294 295 296 296 296 297 297 297 297 297 296 297 296 296 297 298 298 299 298 298 300 301 304 304 304 306 304 307 309 308 308 307 308 310 311 310 309 310 310 311 310 308 309 315 319 318 315
294 295 296 296 297 297 298 298 297 297 298 297 297 296 297 298 298 299 299 301 301 302 303 304 305 306 306 308 307 308 308 306 305 307 312 311 312 312 311 313 312 311 314 317 315 314 314
295 295 296 297 297 298 297 298 298 297 297 297 297 297 296 298 298 297 297 299 301 301 303 304 305 305 305 307 307 307 307 308 307 308 307 310 311 312 312 312 311 313 311 311 313 314 313